KC5DAQ-22 Weather Reports


time (UTC)temp
F
wind
direction
speed
knots
gust
knots
rain 1hr
in
rain 24hr
in
rain mn
in
humidity
%
barometer
mb
20260906021238 81 28 2.6 3.5 0.00 0.00 0.00 88 1009.8
20260906021135 80 28 1.7 5.2 0.00 0.00 0.00 88 1009.9
20260906021035 80 25 1.7 5.2 0.00 0.00 0.00 88 1009.9
20260906020936 80 25 1.7 5.2 0.00 0.00 0.00 88 1009.9
20260906020836 80 25 1.7 5.2 0.00 0.00 0.00 88 1009.8
20260906020734 80 27 1.7 5.2 0.00 0.00 0.00 88 1009.8
20260906020632 80 25 1.7 5.2 0.00 0.00 0.00 88 1009.8
20260906020532 80 24 2.6 5.2 0.00 0.00 0.00 89 1009.9
20260906020431 80 25 2.6 5.2 0.00 0.00 0.00 89 1009.9
20260906020332 80 25 2.6 5.2 0.00 0.00 0.00 88 1009.9
20260906020233 80 25 3.5 5.2 0.00 0.00 0.00 89 1010.0
20260906020131 80 25 3.5 5.2 0.00 0.00 0.00 89 1010.0
20260906020031 80 28 4.3 5.2 0.00 0.00 0.00 88 1010.0
20260906015933 80 25 4.3 5.2 0.00 0.00 0.00 88 1010.0
20260906015832 80 24 3.5 5.2 0.00 0.00 0.00 88 1010.0
20260906015731 80 30 2.6 5.2 0.00 0.00 0.00 88 1010.0
20260906015631 80 31 1.7 4.3 0.00 0.01 0.00 88 1009.9
20260906015532 80 18 2.6 4.3 0.00 0.01 0.00 88 1009.9
20260906015434 80 17 2.6 4.3 0.00 0.01 0.00 88 1009.9
20260906015332 81 17 2.6 4.3 0.00 0.01 0.00 88 1009.9
20260906015232 81 17 2.6 4.3 0.00 0.01 0.00 88 1009.9
20260906015131 81 27 1.7 4.3 0.00 0.01 0.00 88 1009.9
20260906015033 81 30 2.6 5.2 0.00 0.01 0.00 88 1009.9
20260906014934 81 30 3.5 5.2 0.00 0.01 0.00 88 1010.0
20260906014831 81 25 2.6 6.1 0.00 0.01 0.00 88 1009.9
20260906014730 81 24 3.5 6.1 0.00 0.01 0.00 88 1009.9
20260906014630 81 23 3.5 6.1 0.00 0.01 0.00 88 1010.0
20260906014533 81 28 3.5 6.1 0.00 0.01 0.00 88 1009.9
20260906014431 81 27 4.3 6.1 0.00 0.01 0.00 88 1010.0
20260906014330 81 20 3.5 6.1 0.00 0.01 0.00 88 1010.0
20260906014231 81 28 3.5 6.1 0.00 0.01 0.00 88 1010.0
20260906014112 81 25 4.3 6.1 0.00 0.01 0.00 88 1009.9
20260906014011 81 27 4.3 7.8 0.00 0.01 0.00 88 1009.9
20260906013910 80 21 3.5 7.8 0.00 0.01 0.00 88 1009.9
20260906013808 81 25 4.3 7.8 0.00 0.01 0.00 88 1009.9
20260906013707 81 31 4.3 7.8 0.00 0.01 0.00 88 1009.8
20260906013605 80 31 3.5 7.8 0.00 0.01 0.00 89 1009.8
20260906013505 80 24 2.6 7.8 0.00 0.01 0.00 89 1009.8
20260906013403 80 25 3.5 7.8 0.00 0.01 0.00 89 1009.7
20260906013304 80 34 4.3 7.8 0.00 0.01 0.00 89 1009.7
20260906013202 80 24 4.3 7.8 0.00 0.01 0.00 89 1009.7
20260906013102 80 23 4.3 7.8 0.00 0.01 0.00 89 1009.7
20260906013003 80 25 3.5 6.1 0.00 0.01 0.00 89 1009.6
20260906012904 80 24 4.3 6.1 0.00 0.01 0.00 89 1009.7
20260906012804 80 32 4.3 7.8 0.00 0.01 0.00 89 1009.7
20260906012703 80 28 4.3 7.8 0.00 0.01 0.00 89 1009.6
20260906012603 80 23 4.3 7.8 0.00 0.01 0.00 89 1009.7
20260906012503 80 28 4.3 7.8 0.00 0.01 0.00 89 1009.6
20260906012402 80 30 5.2 8.7 0.00 0.01 0.00 89 1009.6
20260906012306 80 25 5.2 8.7 0.00 0.01 0.00 89 1009.6
20260906012203 80 23 5.2 8.7 0.00 0.01 0.00 89 1009.7
20260906012102 80 28 5.2 8.7 0.00 0.01 0.00 89 1009.7
20260906012002 80 27 6.1 8.7 0.00 0.01 0.00 89 1009.7
20260906011904 80 27 5.2 8.7 0.00 0.01 0.00 89 1009.6
20260906011803 80 25 3.5 8.7 0.00 0.01 0.00 89 1009.6
20260906011703 80 18 2.6 8.7 0.00 0.01 0.00 89 1009.6
20260906011603 80 28 4.3 8.7 0.00 0.01 0.00 89 1009.6
20260906011504 80 25 6.1 8.7 0.00 0.01 0.00 89 1009.6
20260906011403 80 30 4.3 8.7 0.00 0.01 0.00 89 1009.5
20260906011302 80 30 3.5 8.7 0.00 0.01 0.00 89 1009.5
20260906011204 80 18 3.5 8.7 0.00 0.01 0.00 89 1009.5
20260906011102 80 27 4.3 8.7 0.00 0.01 0.00 89 1009.5
20260906011003 80 30 3.5 8.7 0.00 0.01 0.00 89 1009.5
20260906010903 80 24 3.5 8.7 0.00 0.01 0.00 89 1009.5
20260906010803 80 30 5.2 8.7 0.00 0.01 0.00 89 1009.5
20260906010701 80 25 4.3 8.7 0.00 0.01 0.00 89 1009.5
20260906010602 80 24 4.3 8.7 0.00 0.01 0.00 89 1009.5
20260906010505 80 32 5.2 8.7 0.00 0.01 0.00 89 1009.6
20260906010404 80 17 4.3 8.7 0.00 0.01 0.00 89 1009.6
20260906010302 80 32 4.3 8.7 0.00 0.01 0.00 89 1009.5
20260906010204 80 24 4.3 8.7 0.00 0.01 0.00 89 1009.5
20260906010103 80 30 4.3 8.7 0.00 0.01 0.00 90 1009.6
20260906010004 80 28 5.2 8.7 0.00 0.01 0.00 89 1009.6
20260906005902 80 31 5.2 8.7 0.00 0.01 0.00 89 1009.6
20260906005804 80 23 4.3 6.1 0.00 0.01 0.00 90 1009.6
20260906005702 80 28 4.3 6.1 0.00 0.01 0.00 90 1009.6
20260906005602 80 30 4.3 6.1 0.00 0.01 0.00 90 1009.5
20260906005505 80 28 4.3 7.8 0.00 0.01 0.00 89 1009.5
20260906005402 80 16 3.5 7.8 0.00 0.01 0.00 89 1009.6
20260906005306 80 18 5.2 7.8 0.00 0.01 0.00 89 1009.6
20260906005203 80 20 4.3 7.8 0.00 0.01 0.00 89 1009.6
20260906005103 81 21 2.6 7.8 0.00 0.01 0.00 89 1009.6
20260906005003 81 23 2.6 7.8 0.00 0.01 0.00 89 1009.6
20260906004903 81 21 4.3 7.8 0.00 0.01 0.00 89 1009.6
20260906004804 81 14 4.3 7.8 0.00 0.01 0.00 89 1009.5
20260906004702 81 23 5.2 7.8 0.00 0.01 0.00 89 1009.6
20260906004602 81 24 4.3 7.8 0.00 0.01 0.00 89 1009.6
20260906004504 81 18 3.5 5.2 0.00 0.01 0.00 89 1009.7
20260906004403 81 17 4.3 5.2 0.00 0.01 0.00 89 1009.6
20260906004302 81 16 4.3 5.2 0.00 0.01 0.00 89 1009.6
20260906004204 81 24 4.3 5.2 0.00 0.01 0.00 89 1009.7
20260906004103 81 14 3.5 5.2 0.00 0.01 0.00 89 1009.7
20260906004002 81 21 3.5 5.2 0.00 0.01 0.00 89 1009.7
20260906003901 81 16 3.5 7.8 0.00 0.01 0.00 88 1009.7
20260906003804 81 17 2.6 7.8 0.00 0.01 0.00 88 1009.7
20260906003702 81 20 3.5 8.7 0.00 0.01 0.00 88 1009.7
20260906003603 81 17 3.5 8.7 0.00 0.01 0.00 88 1009.6
20260906003503 81 17 3.5 9.6 0.00 0.01 0.00 88 1009.6
20260906003403 81 17 3.5 9.6 0.00 0.01 0.00 88 1009.7
20260906003304 81 17 3.5 9.6 0.00 0.01 0.00 88 1009.7
20260906003202 81 7 3.5 9.6 0.00 0.01 0.00 88 1009.7
20260906003102 81 17 5.2 9.6 0.00 0.01 0.00 88 1009.6
20260906003002 81 13 6.1 9.6 0.00 0.01 0.00 88 1009.7
20260906002902 81 28 6.1 9.6 0.00 0.01 0.00 88 1009.7
20260906002804 81 25 5.2 9.6 0.00 0.01 0.00 88 1009.6
20260906002704 81 20 6.1 9.6 0.00 0.01 0.00 88 1009.6
20260906002602 81 18 5.2 9.6 0.00 0.01 0.00 88 1009.7
20260906002502 81 27 4.3 7.8 0.00 0.01 0.00 88 1009.6
20260906002402 81 31 4.3 9.6 0.00 0.01 0.00 88 1009.6
20260906002306 81 28 4.3 10.4 0.00 0.01 0.00 88 1009.6
20260906002203 81 21 5.2 10.4 0.00 0.01 0.00 88 1009.6
20260906002103 81 23 5.2 10.4 0.00 0.01 0.00 87 1009.6
20260906002003 81 21 5.2 10.4 0.00 0.01 0.00 87 1009.7
20260906001903 81 30 5.2 10.4 0.00 0.01 0.00 87 1009.7
20260906001803 81 18 4.3 10.4 0.00 0.01 0.00 87 1009.6
20260906001702 82 18 4.3 11.3 0.00 0.01 0.00 87 1009.6
20260906001603 82 27 5.2 11.3 0.00 0.01 0.00 87 1009.7
20260906001503 82 34 7.0 11.3 0.00 0.01 0.00 87 1009.7
20260906001403 82 27 6.1 11.3 0.00 0.01 0.00 87 1009.7
20260906001302 82 32 5.2 11.3 0.00 0.01 0.00 86 1009.7
20260906001201 82 27 4.3 11.3 0.00 0.01 0.00 86 1009.8
20260906001104 82 21 5.2 11.3 0.00 0.01 0.00 86 1009.8
20260906001002 82 30 7.0 11.3 0.00 0.01 0.00 86 1009.8
20260906000903 82 32 6.1 12.2 0.00 0.01 0.00 86 1009.8
20260906000803 82 27 7.0 13.9 0.00 0.01 0.00 86 1009.8
20260906000704 82 24 7.0 13.9 0.00 0.01 0.00 85 1009.9
20260906000603 82 28 7.8 13.9 0.00 0.01 0.00 85 1009.9
20260906000503 83 21 7.8 13.9 0.00 0.01 0.00 85 1010.0
20260906000403 83 30 7.8 13.9 0.00 0.01 0.00 85 1009.9
20260906000303 83 86 7.0 13.9 0.00 0.01 0.00 85 1010.0
20260906000204 83 100 7.0 13.9 0.00 0.01 0.00 85 1009.9
20260906000104 83 82 8.7 13.9 0.00 0.01 0.00 85 1009.8
20260906000004 83 80 8.7 13.9 0.00 0.01 0.00 85 1009.9
20260905235902 83 76 7.8 13.9 0.00 0.01 0.00 85 1009.8
20260905235802 83 62 6.1 12.2 0.00 0.01 0.00 85 1009.8
20260905235703 83 62 6.1 12.2 0.00 0.01 0.00 84 1009.8
20260905235603 83 59 7.0 12.2 0.00 0.01 0.00 84 1009.9
20260905235503 83 76 7.8 12.2 0.00 0.01 0.00 84 1009.9
20260905235402 83 59 7.8 12.2 0.00 0.01 0.00 84 1009.9
20260905235306 83 94 8.7 12.2 0.00 0.01 0.00 84 1009.9
20260905235202 84 76 7.8 11.3 0.00 0.01 0.00 84 1010.0
20260905235102 84 85 7.8 11.3 0.00 0.01 0.00 84 1009.9
20260905235003 84 96 8.7 11.3 0.00 0.01 0.00 84 1009.9
20260905234903 84 92 7.8 11.3 0.00 0.01 0.00 84 1009.9
20260905234803 84 78 6.1 11.3 0.00 0.01 0.00 84 1009.8
20260905234703 84 86 5.2 12.2 0.00 0.01 0.00 84 1009.9
20260905234602 84 107 6.1 12.2 0.00 0.01 0.00 84 1009.9
20260905234502 84 116 6.1 12.2 0.00 0.01 0.00 83 1009.9
20260905234402 84 76 6.1 12.2 0.00 0.01 0.00 83 1009.8
20260905234303 84 71 7.8 12.2 0.00 0.01 0.00 83 1009.9
20260905234204 84 92 7.8 12.2 0.00 0.01 0.00 83 1010.0
20260905234103 84 90 6.1 12.2 0.00 0.01 0.00 83 1010.0
20260905234004 84 85 7.0 13.0 0.00 0.01 0.00 83 1010.0
20260905233903 85 89 7.8 13.0 0.00 0.01 0.00 82 1010.0
20260905233803 85 92 7.0 13.0 0.00 0.01 0.00 82 1010.2
20260905233704 85 102 7.0 13.0 0.00 0.01 0.00 82 1010.2
20260905233603 85 65 7.8 13.0 0.00 0.01 0.00 82 1010.2
20260905233503 85 62 7.8 13.0 0.00 0.01 0.00 82 1010.2
20260905233403 85 102 7.0 13.0 0.00 0.01 0.00 81 1010.3
20260905233304 85 56 7.8 13.0 0.00 0.01 0.00 81 1010.3
20260905233203 85 44 8.7 13.0 0.00 0.01 0.00 80 1010.4
20260905233102 86 66 9.6 13.0 0.00 0.01 0.00 80 1010.4
20260905233004 86 83 9.6 13.0 0.00 0.01 0.00 80 1010.3
20260905232903 86 54 8.7 13.0 0.00 0.01 0.00 80 1010.3
20260905232802 86 125 9.6 13.0 0.00 0.01 0.00 79 1010.3
20260905232702 86 39 9.6 13.0 0.00 0.01 0.00 78 1010.3
20260905232603 86 13 8.7 13.0 0.00 0.01 0.00 78 1010.3
20260905232503 86 16 9.6 13.0 0.00 0.01 0.00 77 1010.2
20260905232403 86 28 8.7 13.0 0.00 0.01 0.00 77 1010.2
20260905232306 86 21 7.8 13.0 0.00 0.01 0.00 77 1010.2
20260905232202 87 18 7.8 13.0 0.00 0.01 0.00 76 1010.2
20260905232101 87 6 7.0 12.2 0.00 0.01 0.00 75 1010.1
20260905232002 87 16 7.0 12.2 0.00 0.01 0.00 75 1010.2
20260905231903 87 6 7.8 12.2 0.00 0.01 0.00 75 1010.1
20260905231802 87 0 7.0 9.6 0.00 0.01 0.00 75 1010.1
20260905231702 87 20 6.1 9.6 0.00 0.01 0.00 75 1010.1
20260905231603 87 16 5.2 9.6 0.00 0.01 0.00 74 1010.1
20260905231502 88 16 5.2 9.6 0.00 0.01 0.00 74 1010.0
20260905231401 88 0 4.3 9.6 0.00 0.01 0.00 73 1010.0
20260905231303 88 37 3.5 9.6 0.00 0.01 0.00 73 1010.0
20260905231202 88 17 4.3 9.6 0.00 0.01 0.00 73 1009.9
20260905231103 88 44 5.2 9.6 0.00 0.01 0.00 72 1009.9
20260905231001 88 27 5.2 9.6 0.00 0.01 0.00 72 1009.8
20260905230903 89 51 5.2 9.6 0.00 0.01 0.00 71 1009.8
20260905230803 89 30 4.3 7.8 0.00 0.01 0.00 71 1009.8
20260905230702 89 87 3.5 7.8 0.00 0.01 0.00 71 1009.8
20260905230603 89 82 3.5 7.8 0.00 0.01 0.00 71 1009.8
20260905230503 89 58 3.5 7.8 0.00 0.01 0.00 71 1009.7
20260905230403 89 62 4.3 8.7 0.00 0.01 0.00 70 1009.7
20260905230302 89 45 4.3 8.7 0.00 0.01 0.00 70 1009.7
20260905230204 89 92 5.2 8.7 0.00 0.01 0.00 70 1009.8
20260905230002 89 61 4.3 8.7 0.00 0.01 0.00 70 1009.7
20260905225903 89 78 4.3 8.7 0.00 0.01 0.00 69 1009.7
20260905225803 89 90 4.3 8.7 0.00 0.01 0.00 69 1009.7
20260905225702 89 56 5.2 8.7 0.00 0.01 0.00 69 1009.6
20260905225602 89 71 5.2 8.7 0.00 0.01 0.00 69 1009.7
20260905225504 89 79 6.1 9.6 0.00 0.01 0.00 69 1009.7
20260905225401 89 82 5.2 9.6 0.00 0.01 0.00 69 1009.6
20260905225305 89 99 4.3 9.6 0.00 0.01 0.00 69 1009.6
20260905225203 89 124 4.3 9.6 0.00 0.01 0.00 69 1009.6
20260905225102 89 93 4.3 9.6 0.00 0.01 0.00 69 1009.6
20260905225002 89 87 4.3 9.6 0.00 0.01 0.00 69 1009.6
20260905224903 89 82 5.2 9.6 0.00 0.01 0.00 70 1009.6
20260905224803 89 92 5.2 9.6 0.00 0.01 0.00 70 1009.5
20260905224702 89 89 6.1 9.6 0.00 0.01 0.00 70 1009.5
20260905224602 89 97 5.2 9.6 0.00 0.01 0.00 71 1009.5
20260905224503 89 76 4.3 6.1 0.00 0.01 0.00 71 1009.4
20260905224401 89 78 4.3 6.1 0.00 0.01 0.00 71 1009.4
20260905224259 89 104 5.2 7.8 0.00 0.01 0.00 71 1009.4
20260905224158 89 87 5.2 7.8 0.00 0.01 0.00 70 1009.4
20260905224057 89 80 5.2 7.8 0.00 0.01 0.00 70 1009.4
20260905223953 89 79 4.3 7.8 0.00 0.01 0.00 70 1009.3
20260905223854 89 82 4.3 7.8 0.00 0.01 0.00 70 1009.4
20260905223751 90 114 4.3 7.8 0.00 0.01 0.00 70 1009.5
20260905223650 90 90 5.2 9.6 0.00 0.01 0.00 70 1009.4
20260905223549 90 123 4.3 9.6 0.00 0.01 0.00 70 1009.4
20260905223448 90 78 5.2 9.6 0.00 0.01 0.00 70 1009.4
20260905223346 90 94 6.1 9.6 0.00 0.01 0.00 70 1009.6
20260905223246 90 80 5.2 9.6 0.00 0.01 0.00 70 1009.5
20260905223144 90 104 4.3 9.6 0.00 0.01 0.00 70 1009.6
20260905223041 90 87 4.3 9.6 0.00 0.01 0.00 70 1009.5
20260905222937 90 69 5.2 9.6 0.00 0.01 0.00 70 1009.5
20260905222835 90 83 6.1 9.6 0.00 0.01 0.00 70 1009.6
20260905222735 90 66 5.2 9.6 0.00 0.01 0.00 70 1009.6
20260905222632 90 80 5.2 9.6 0.00 0.01 0.00 70 1009.6
20260905222532 90 85 5.2 9.6 0.00 0.01 0.00 70 1009.7
20260905222431 90 92 6.1 9.6 0.00 0.01 0.00 70 1009.6
20260905222331 90 100 7.0 9.6 0.00 0.01 0.00 70 1009.6
20260905222231 90 99 6.1 9.6 0.00 0.01 0.00 70 1009.6
20260905222131 90 90 4.3 7.8 0.00 0.01 0.00 70 1009.6
20260905222031 90 69 3.5 6.1 0.00 0.01 0.00 71 1009.5
20260905221931 90 56 3.5 6.1 0.00 0.01 0.00 70 1009.5
20260905221831 90 52 3.5 6.1 0.00 0.01 0.00 70 1009.5
20260905221733 90 71 3.5 6.1 0.00 0.01 0.00 70 1009.5
20260905221633 90 109 3.5 6.1 0.00 0.01 0.00 70 1009.5
20260905221532 90 133 2.6 6.1 0.00 0.01 0.00 71 1009.5
20260905221432 89 96 3.5 6.1 0.00 0.01 0.00 71 1009.4
20260905221331 90 94 4.3 6.1 0.00 0.01 0.00 71 1009.4
20260905221231 89 94 4.3 6.1 0.00 0.01 0.00 72 1009.3
20260905221131 89 92 4.3 6.1 0.00 0.01 0.00 71 1009.3
20260905221032 89 66 3.5 6.1 0.00 0.01 0.00 72 1009.4
20260905220931 89 49 3.5 6.1 0.00 0.01 0.00 72 1009.4
20260905220831 89 90 4.3 6.1 0.00 0.01 0.00 73 1009.3
20260905220732 89 51 1.7 4.3 0.00 0.01 0.00 73 1009.3
20260905220632 88 49 0.0 3.5 0.00 0.01 0.00 74 1009.4
20260905220531 88 0 0.0 0.0 0.00 0.01 0.00 74 1009.3
20260905220431 88 347 0.0 0.0 0.00 0.01 0.00 75 1009.3
20260905220331 88 347 0.0 0.0 0.00 0.01 0.00 75 1009.4
20260905220232 87 347 0.0 0.0 0.00 0.01 0.00 75 1009.5
20260905220131 87 347 0.0 0.0 0.00 0.01 0.00 75 1009.4
20260905220032 87 347 0.0 0.0 0.00 0.01 0.00 76 1009.4
20260905215932 87 347 0.0 0.0 0.00 0.01 0.00 76 1009.5
20260905215831 87 347 0.0 0.0 0.00 0.01 0.00 76 1009.5
20260905215731 87 347 0.0 0.0 0.00 0.01 0.00 76 1009.4
20260905215631 87 347 0.0 1.7 0.00 0.01 0.00 76 1009.5
20260905215532 87 347 0.0 2.6 0.00 0.01 0.00 76 1009.5
20260905215432 87 345 0.0 2.6 0.00 0.01 0.00 76 1009.5
20260905215333 87 327 0.0 2.6 0.00 0.01 0.00 76 1009.5
20260905215232 87 327 0.0 2.6 0.00 0.01 0.00 77 1009.5
20260905215130 87 327 0.0 2.6 0.00 0.01 0.00 77 1009.5
20260905215032 87 327 0.0 3.5 0.00 0.01 0.00 77 1009.5
20260905214931 87 327 0.0 3.5 0.00 0.01 0.00 76 1009.4
20260905214832 87 327 0.9 3.5 0.00 0.01 0.00 76 1009.4
20260905214731 87 327 0.9 3.5 0.00 0.01 0.00 76 1009.3
20260905214632 87 327 1.7 3.5 0.00 0.01 0.00 77 1009.3
20260905214532 87 327 0.9 3.5 0.00 0.01 0.00 77 1009.3
20260905214431 87 327 1.7 4.3 0.00 0.01 0.00 77 1009.3
20260905214333 87 326 1.7 4.3 0.00 0.01 0.00 77 1009.3
20260905214231 87 326 1.7 4.3 0.00 0.01 0.00 77 1009.3
20260905214131 87 326 1.7 4.3 0.00 0.01 0.00 77 1009.3
20260905214031 87 326 1.7 4.3 0.00 0.01 0.00 77 1009.3
20260905213931 87 326 1.7 4.3 0.00 0.02 0.00 77 1009.3
20260905213830 87 326 1.7 4.3 0.00 0.02 0.00 77 1009.4
20260905213730 87 326 1.7 4.3 0.00 0.04 0.00 77 1009.4
20260905213632 87 326 2.6 4.3 0.00 0.05 0.00 77 1009.4
20260905213531 87 326 2.6 4.3 0.00 0.06 0.00 77 1009.5
20260905213432 87 303 2.6 4.3 0.00 0.06 0.00 76 1009.5
20260905213332 87 303 2.6 4.3 0.00 0.06 0.00 76 1009.5
20260905213232 87 303 1.7 4.3 0.00 0.06 0.00 75 1009.6
20260905213132 87 309 0.0 0.0 0.00 0.06 0.00 75 1009.6
20260905213031 87 316 0.0 0.0 0.00 0.06 0.00 74 1009.6
20260905212932 87 316 0.0 0.0 0.00 0.06 0.00 74 1009.6
20260905212831 87 309 0.0 0.0 0.00 0.06 0.00 74 1009.6
20260905212732 87 309 0.0 0.9 0.00 0.06 0.00 73 1009.6
20260905212632 87 314 0.0 0.9 0.00 0.06 0.00 73 1009.6
20260905212532 87 314 0.0 0.9 0.00 0.06 0.00 73 1009.7
20260905212432 87 314 0.0 0.9 0.00 0.06 0.00 73 1009.6
20260905212332 87 319 0.0 0.9 0.00 0.06 0.00 73 1009.7
20260905212232 87 319 0.0 0.9 0.00 0.06 0.00 73 1009.6
20260905212131 87 319 0.0 0.9 0.00 0.06 0.00 73 1009.7
20260905212031 87 320 0.0 0.9 0.00 0.06 0.00 73 1009.7
20260905211932 87 334 0.0 0.9 0.00 0.06 0.00 73 1009.6
20260905211831 87 334 0.0 0.9 0.00 0.06 0.00 73 1009.7
20260905211732 87 334 0.0 0.0 0.00 0.06 0.00 72 1009.7
20260905211631 87 334 0.0 0.0 0.00 0.06 0.00 72 1009.7
20260905211532 88 334 0.0 0.0 0.00 0.06 0.00 71 1009.7
20260905211431 88 334 0.0 0.0 0.00 0.06 0.00 72 1009.7
20260905211331 88 334 0.0 0.0 0.00 0.06 0.00 71 1009.7
20260905211232 88 334 0.0 0.0 0.00 0.06 0.00 71 1009.6
20260905211131 88 334 0.0 0.0 0.00 0.06 0.00 71 1009.6
20260905211030 87 334 0.0 0.0 0.00 0.06 0.00 71 1009.6
20260905210932 87 334 0.0 1.7 0.00 0.06 0.00 71 1009.6
20260905210831 87 334 0.0 1.7 0.00 0.06 0.00 71 1009.6
20260905210731 87 334 0.0 2.6 0.00 0.06 0.00 71 1009.7
20260905210631 87 334 0.0 2.6 0.00 0.06 0.00 71 1009.7
20260905210531 87 334 0.0 2.6 0.00 0.06 0.00 71 1009.7
20260905210431 87 334 0.0 2.6 0.00 0.06 0.00 71 1009.7
20260905210332 87 334 0.0 4.3 0.00 0.06 0.00 71 1009.8
20260905210234 87 334 0.0 5.2 0.00 0.06 0.00 72 1009.8
20260905210132 87 333 0.9 5.2 0.00 0.06 0.00 72 1009.8
20260905210029 86 333 0.9 7.8 0.00 0.06 0.00 72 1009.8
20260905205929 86 333 1.7 8.7 0.00 0.06 0.00 72 1009.8
20260905205829 86 333 1.7 8.7 0.00 0.06 0.00 73 1009.8
20260905205729 86 333 0.9 8.7 0.00 0.06 0.00 73 1009.9
20260905205629 86 333 1.7 8.7 0.00 0.06 0.00 73 1009.9
20260905205529 86 333 2.6 8.7 0.00 0.06 0.00 73 1009.8
20260905205428 85 331 3.5 8.7 0.00 0.06 0.00 73 1009.8
20260905205330 85 323 3.5 8.7 0.00 0.06 0.00 74 1010.0
20260905205228 85 305 4.3 8.7 0.00 0.06 0.00 74 1009.9
20260905205128 85 290 5.2 8.7 0.00 0.06 0.00 74 1010.0
20260905205028 85 299 4.3 8.7 0.00 0.06 0.00 75 1009.9
20260905204928 85 298 4.3 11.3 0.00 0.06 0.00 74 1010.0
20260905204829 85 288 5.2 12.2 0.00 0.06 0.00 74 1010.0
20260905204728 85 290 6.1 14.8 0.00 0.06 0.00 74 1009.9
20260905204630 85 298 6.1 15.6 0.00 0.06 0.00 74 1009.9
20260905204528 85 290 6.1 15.6 0.00 0.06 0.00 74 1009.8
20260905204430 85 292 5.2 15.6 0.00 0.06 0.00 74 1009.8
20260905204329 85 330 5.2 15.6 0.00 0.06 0.00 75 1009.9
20260905204228 85 305 5.2 15.6 0.00 0.06 0.00 75 1009.8
20260905204128 85 289 7.0 15.6 0.00 0.06 0.00 74 1009.8
20260905204028 85 271 9.6 15.6 0.00 0.06 0.00 74 1009.8
20260905203928 85 293 11.3 15.6 0.00 0.06 0.00 74 1009.8
20260905203830 85 300 11.3 15.6 0.00 0.06 0.00 74 1009.8
20260905203729 85 307 9.6 15.6 0.00 0.06 0.00 74 1009.8
20260905203629 86 307 8.7 13.9 0.00 0.06 0.00 73 1009.9
20260905203530 86 298 5.2 11.3 0.00 0.06 0.00 73 1009.9
20260905203428 87 306 3.5 7.8 0.00 0.06 0.00 73 1009.9
20260905203328 87 309 3.5 7.8 0.00 0.06 0.00 73 1009.9
20260905203229 87 300 4.3 8.7 0.00 0.06 0.00 73 1010.0
20260905203128 87 300 3.5 8.7 0.00 0.06 0.00 73 1009.9
20260905203028 87 324 1.7 8.7 0.00 0.06 0.00 74 1009.9
20260905202929 87 258 2.6 8.7 0.00 0.06 0.00 73 1010.0
20260905202828 88 257 3.5 8.7 0.00 0.06 0.00 73 1010.0
20260905202728 88 319 3.5 8.7 0.00 0.06 0.00 72 1010.0
20260905202630 89 309 3.5 8.7 0.00 0.06 0.00 72 1010.0
20260905202529 89 285 3.5 8.7 0.00 0.06 0.00 71 1010.1
20260905202427 90 290 5.2 8.7 0.00 0.06 0.00 70 1010.1
20260905202328 91 290 3.5 8.7 0.00 0.06 0.00 67 1010.1
20260905202229 91 276 2.6 8.7 0.00 0.06 0.00 67 1010.1
20260905202129 91 237 2.6 8.7 0.00 0.06 0.00 67 1010.0
20260905202028 91 162 2.6 8.7 0.00 0.06 0.00 67 1010.0
20260905201927 91 171 1.7 8.7 0.00 0.06 0.00 67 1010.0
20260905201829 91 169 2.6 8.7 0.00 0.06 0.00 67 1009.9
20260905201728 91 199 4.3 8.7 0.00 0.06 0.00 67 1010.0
20260905201628 91 111 5.2 8.7 0.00 0.06 0.00 67 1010.0
20260905201527 91 111 5.2 8.7 0.00 0.06 0.00 67 1009.9
20260905201427 91 66 5.2 8.7 0.00 0.06 0.00 67 1009.9
20260905201326 91 117 5.2 8.7 0.00 0.06 0.00 67 1010.0
20260905201225 91 107 5.2 8.7 0.00 0.06 0.00 67 1009.9
20260905201123 91 113 5.2 9.6 0.00 0.06 0.00 67 1009.9
20260905201022 91 109 4.3 9.6 0.00 0.06 0.00 68 1009.9
20260905200920 91 94 3.5 9.6 0.00 0.06 0.00 68 1009.9
20260905200818 91 102 3.5 9.6 0.00 0.06 0.00 68 1009.9
20260905200717 91 86 2.6 9.6 0.00 0.06 0.00 67 1009.9
20260905200614 91 165 3.5 9.6 0.00 0.06 0.00 67 1009.9
20260905200513 91 120 3.5 9.6 0.00 0.06 0.00 68 1009.9
20260905200412 91 179 4.3 9.6 0.00 0.06 0.00 68 1010.0
20260905200311 91 90 5.2 9.6 0.00 0.06 0.00 68 1010.0
20260905200209 91 99 5.2 9.6 0.00 0.06 0.00 67 1010.0
20260905200107 91 110 5.2 9.6 0.00 0.06 0.00 67 1010.0
20260905200006 91 121 5.2 9.6 0.00 0.06 0.00 67 1010.0
20260905195903 91 113 5.2 8.7 0.00 0.06 0.00 67 1010.0
20260905195804 92 85 5.2 8.7 0.00 0.06 0.00 67 1010.0
20260905195702 92 96 5.2 8.7 0.00 0.06 0.00 66 1010.0
20260905195602 92 92 7.0 8.7 0.00 0.06 0.00 66 1010.0
20260905195503 92 93 2.6 6.1 0.00 0.06 0.00 64 1010.0
20260905195404 92 93 2.6 6.1 0.00 0.06 0.00 64 1010.0
20260905195306 92 106 1.7 6.1 0.00 0.06 0.00 64 1010.0
20260905195203 92 86 2.6 6.1 0.00 0.06 0.00 64 1009.9
20260905195104 92 85 2.6 6.1 0.00 0.06 0.00 63 1009.9
20260905195002 92 86 4.3 6.1 0.00 0.06 0.00 63 1010.0
20260905194903 92 100 3.5 6.1 0.00 0.06 0.00 63 1009.9
20260905194804 92 63 1.7 6.1 0.00 0.06 0.00 63 1009.9
20260905194702 92 224 1.7 6.1 0.00 0.06 0.00 64 1010.0
20260905194603 92 224 1.7 6.1 0.00 0.06 0.00 63 1010.0
20260905194503 92 166 2.6 6.1 0.00 0.06 0.00 64 1010.0
20260905194402 92 168 2.6 9.6 0.00 0.06 0.00 64 1010.0
20260905194302 92 124 3.5 9.6 0.00 0.06 0.00 63 1010.0
20260905194202 92 121 4.3 9.6 0.00 0.06 0.00 64 1010.0
20260905194103 92 100 2.6 9.6 0.00 0.06 0.00 63 1010.0
20260905194003 93 117 2.6 9.6 0.00 0.06 0.00 64 1010.0
20260905193903 93 179 4.3 9.6 0.00 0.06 0.00 64 1010.0
20260905193802 93 188 3.5 9.6 0.00 0.06 0.00 64 1010.0
20260905193703 93 158 2.6 9.6 0.00 0.06 0.00 64 1010.0
20260905193602 93 127 4.3 9.6 0.00 0.06 0.00 64 1010.1
20260905193505 93 100 5.2 9.6 0.00 0.06 0.00 64 1010.1
20260905193403 93 131 5.2 9.6 0.00 0.06 0.00 64 1010.0
20260905193303 93 104 7.0 11.3 0.00 0.06 0.00 63 1010.1
20260905193202 93 99 5.2 11.3 0.00 0.06 0.00 63 1010.0
20260905193103 94 121 3.5 11.3 0.00 0.06 0.00 63 1010.0
20260905193004 94 178 3.5 11.3 0.00 0.06 0.00 63 1009.9
20260905192903 94 148 2.6 11.3 0.00 0.06 0.00 63 1010.0
20260905192803 94 94 2.6 11.3 0.00 0.06 0.00 64 1010.0
20260905192703 93 116 2.6 11.3 0.00 0.06 0.00 63 1010.0
20260905192602 93 78 1.7 11.3 0.00 0.06 0.00 64 1010.0
20260905192502 93 72 4.3 11.3 0.00 0.06 0.00 63 1010.1
20260905192404 93 72 7.0 11.3 0.00 0.06 0.00 64 1010.2
20260905192306 93 92 5.2 9.6 0.00 0.06 0.00 65 1010.1
20260905192202 93 92 3.5 7.8 0.00 0.06 0.00 65 1010.2
20260905192102 92 140 3.5 7.8 0.00 0.06 0.00 65 1010.2
20260905192005 93 92 3.5 5.2 0.00 0.06 0.00 65 1010.3
20260905191902 93 154 3.5 6.1 0.00 0.06 0.00 65 1010.3
20260905191803 93 196 3.5 11.3 0.00 0.06 0.00 64 1010.3
20260905191703 93 116 3.5 11.3 0.00 0.06 0.00 65 1010.3
20260905191602 93 118 2.6 11.3 0.00 0.06 0.00 64 1010.3
20260905191502 93 113 2.6 11.3 0.00 0.06 0.00 66 1010.3
20260905191403 93 94 2.6 11.3 0.00 0.06 0.00 66 1010.3
20260905191302 93 121 2.6 11.3 0.00 0.06 0.00 66 1010.3
20260905191203 93 87 2.6 11.3 0.00 0.06 0.00 65 1010.4
20260905191103 93 155 3.5 11.3 0.00 0.06 0.00 65 1010.3
20260905191005 93 202 5.2 11.3 0.00 0.06 0.00 64 1010.4
20260905190903 93 209 5.2 11.3 0.00 0.06 0.00 64 1010.3
20260905190802 93 220 5.2 11.3 0.00 0.06 0.00 65 1010.3
20260905190703 93 120 5.2 9.6 0.00 0.06 0.00 65 1010.3
20260905190602 94 103 5.2 9.6 0.00 0.06 0.00 63 1010.4
20260905190502 94 96 5.2 9.6 0.00 0.06 0.00 63 1010.4
20260905190403 95 94 3.5 10.4 0.00 0.06 0.00 63 1010.4
20260905190302 95 138 4.3 11.3 0.00 0.06 0.00 62 1010.4
20260905190202 96 173 4.3 11.3 0.00 0.06 0.00 63 1010.5
20260905190005 95 175 4.3 11.3 0.00 0.06 0.00 64 1010.4
20260905185903 94 282 2.6 11.3 0.00 0.06 0.00 63 1010.5
20260905185803 94 16 1.7 11.3 0.00 0.06 0.00 63 1010.5
20260905185702 94 72 3.5 11.3 0.00 0.06 0.00 63 1010.5
20260905185602 94 71 5.2 11.3 0.00 0.06 0.00 62 1010.5
20260905185503 94 82 7.0 11.3 0.00 0.06 0.00 61 1010.5
20260905185403 95 85 5.2 11.3 0.00 0.06 0.00 61 1010.5
20260905185305 95 72 3.5 8.7 0.00 0.06 0.00 59 1010.6
20260905185203 95 120 2.6 8.7 0.00 0.06 0.00 58 1010.6
20260905185103 95 127 3.5 8.7 0.00 0.06 0.00 58 1010.7
20260905185003 96 118 3.5 8.7 0.00 0.06 0.00 59 1010.5
20260905184903 96 107 2.6 8.7 0.00 0.06 0.00 58 1010.5
20260905184802 96 110 1.7 8.7 0.00 0.06 0.00 58 1010.6
20260905184702 96 234 3.5 8.7 0.00 0.06 0.00 58 1010.5
20260905184603 96 63 3.5 8.7 0.00 0.06 0.00 58 1010.6
20260905184502 96 80 3.5 5.2 0.00 0.06 0.00 58 1010.7
20260905184403 96 97 2.6 5.2 0.00 0.06 0.00 58 1010.6
20260905184303 96 117 3.5 5.2 0.00 0.06 0.00 56 1010.6
20260905184203 96 96 2.6 5.2 0.00 0.06 0.00 57 1010.7
20260905184102 96 82 3.5 5.2 0.00 0.06 0.00 56 1010.7
20260905184003 96 79 2.6 5.2 0.00 0.06 0.00 56 1010.6
20260905183902 96 78 1.7 4.3 0.00 0.06 0.00 55 1010.7
20260905183803 96 72 1.7 4.3 0.00 0.06 0.00 55 1010.7
20260905183703 96 89 2.6 5.2 0.00 0.06 0.00 55 1010.8
20260905183603 96 125 2.6 7.8 0.00 0.06 0.00 54 1010.7
20260905183504 96 65 2.6 7.8 0.00 0.06 0.00 53 1010.7
20260905183404 97 110 1.7 7.8 0.00 0.06 0.00 54 1010.8
20260905183303 96 140 1.7 7.8 0.00 0.06 0.00 55 1010.7
20260905183203 96 176 1.7 7.8 0.00 0.06 0.00 56 1010.8
20260905183102 96 165 2.6 7.8 0.00 0.06 0.00 56 1010.8
20260905183002 96 180 1.7 7.8 0.00 0.06 0.00 56 1010.8
20260905182902 96 240 2.6 7.8 0.00 0.06 0.00 55 1010.8
20260905182803 96 265 5.2 7.8 0.00 0.06 0.00 56 1010.9
20260905182702 96 245 4.3 7.8 0.00 0.06 0.00 56 1010.9
20260905182602 97 230 1.7 5.2 0.00 0.06 0.00 55 1010.9
20260905182502 97 124 1.7 4.3 0.00 0.06 0.00 54 1010.9
20260905182403 97 104 2.6 4.3 0.00 0.06 0.00 53 1011.0
20260905182305 98 147 2.6 4.3 0.00 0.06 0.00 54 1011.0
20260905182201 97 124 1.7 4.3 0.00 0.06 0.00 55 1011.0
20260905182103 96 262 0.9 4.3 0.00 0.06 0.00 55 1011.0
20260905182003 96 262 0.9 4.3 0.00 0.06 0.00 55 1011.0
20260905181903 96 262 0.9 4.3 0.00 0.06 0.00 55 1011.0
20260905181803 96 262 0.9 4.3 0.00 0.06 0.00 55 1011.1
20260905181702 96 142 0.9 4.3 0.00 0.06 0.00 54 1011.1
20260905181603 96 175 1.7 4.3 0.00 0.06 0.00 54 1011.1
20260905181504 96 175 1.7 4.3 0.00 0.06 0.00 55 1011.2
20260905181403 96 228 1.7 4.3 0.00 0.06 0.00 56 1011.2
20260905181303 96 279 2.6 4.3 0.00 0.06 0.00 57 1011.2
20260905181203 96 259 1.7 4.3 0.00 0.06 0.00 57 1011.3
20260905181102 96 231 1.7 4.3 0.00 0.06 0.00 57 1011.3
20260905181002 96 45 1.7 4.3 0.00 0.06 0.00 57 1011.2
20260905180902 95 39 1.7 4.3 0.00 0.06 0.00 58 1011.3
20260905180803 95 71 2.6 4.3 0.00 0.06 0.00 58 1011.3
20260905180702 95 73 3.5 4.3 0.00 0.06 0.00 57 1011.3
20260905180602 96 82 2.6 4.3 0.00 0.06 0.00 58 1011.3
20260905180504 95 48 2.6 3.5 0.00 0.06 0.00 58 1011.3
20260905180403 95 68 1.7 3.5 0.00 0.06 0.00 59 1011.4
20260905180301 95 56 1.7 3.5 0.00 0.06 0.00 59 1011.4
20260905180203 95 56 1.7 3.5 0.00 0.06 0.00 60 1011.3
20260905180003 94 56 2.6 3.5 0.00 0.06 0.00 60 1011.4
20260905175903 94 56 2.6 3.5 0.00 0.06 0.00 59 1011.5
20260905175803 94 73 2.6 4.3 0.00 0.06 0.00 58 1011.5
20260905175701 94 80 2.6 4.3 0.00 0.06 0.00 59 1011.5
20260905175603 95 103 1.7 4.3 0.00 0.06 0.00 59 1011.5
20260905175502 95 25 0.9 5.2 0.00 0.06 0.00 59 1011.5
20260905175404 95 25 1.7 5.2 0.00 0.06 0.00 59 1011.5
20260905175306 95 24 1.7 5.2 0.00 0.06 0.00 59 1011.5
20260905175203 95 24 2.6 5.2 0.00 0.06 0.00 60 1011.6
20260905175104 95 24 1.7 5.2 0.00 0.06 0.00 60 1011.5
20260905175003 95 11 1.7 5.2 0.00 0.06 0.00 60 1011.6
20260905174902 95 11 1.7 5.2 0.00 0.06 0.00 60 1011.6
20260905174803 95 0 2.6 5.2 0.00 0.06 0.00 60 1011.6
20260905174702 95 0 3.5 5.2 0.00 0.06 0.00 61 1011.6
20260905174602 95 20 3.5 5.2 0.00 0.06 0.00 61 1011.7
20260905174503 95 21 2.6 5.2 0.00 0.06 0.00 61 1011.6
20260905174404 95 39 1.7 5.2 0.00 0.06 0.00 62 1011.7
20260905174304 94 13 2.6 5.2 0.00 0.06 0.00 61 1011.7
20260905174202 95 13 3.5 5.2 0.00 0.06 0.00 61 1011.7
20260905174103 94 344 3.5 5.2 0.00 0.06 0.00 62 1011.7
20260905174004 94 17 2.6 4.3 0.00 0.06 0.00 63 1011.7
20260905173902 94 0 2.6 4.3 0.00 0.06 0.00 63 1011.8
20260905173805 94 358 2.6 4.3 0.00 0.06 0.00 63 1011.9
20260905173702 94 331 2.6 4.3 0.00 0.06 0.00 63 1011.8
20260905173601 93 329 1.7 4.3 0.00 0.06 0.00 65 1011.8
20260905173503 93 347 1.7 4.3 0.00 0.06 0.00 64 1011.9
20260905173403 92 345 1.7 4.3 0.00 0.06 0.00 65 1011.8
20260905173302 92 345 2.6 4.3 0.00 0.06 0.00 64 1011.9
20260905173202 92 345 2.6 4.3 0.00 0.06 0.00 65 1011.9
20260905173103 92 347 2.6 4.3 0.00 0.06 0.00 65 1011.9
20260905173003 92 337 1.7 3.5 0.00 0.06 0.00 66 1011.9
20260905172902 92 1 0.9 2.6 0.00 0.06 0.00 65 1011.9
20260905172802 91 44 1.7 2.6 0.00 0.06 0.00 64 1011.9
20260905172702 91 44 1.7 2.6 0.00 0.06 0.00 65 1012.0
20260905172602 91 55 1.7 2.6 0.00 0.06 0.00 63 1011.9
20260905172502 91 55 0.9 3.5 0.00 0.06 0.00 62 1012.0
20260905172403 91 55 1.7 3.5 0.00 0.06 0.00 62 1012.0
20260905172305 91 55 1.7 3.5 0.00 0.06 0.00 62 1012.0
20260905172200 91 55 0.9 3.5 0.00 0.06 0.00 62 1012.0
20260905172059 91 55 0.9 3.5 0.00 0.06 0.00 64 1012.0
20260905171957 91 55 0.9 3.5 0.00 0.06 0.00 65 1012.0
20260905171856 91 45 0.9 3.5 0.00 0.06 0.00 64 1012.0
20260905171753 91 45 0.9 4.3 0.00 0.06 0.00 64 1012.0
20260905171651 91 45 1.7 4.3 0.00 0.06 0.00 63 1012.0
20260905171552 91 45 2.6 4.3 0.00 0.06 0.00 63 1012.0
20260905171449 91 44 1.7 4.3 0.00 0.06 0.00 63 1012.0
20260905171347 92 44 0.9 4.3 0.00 0.06 0.00 63 1012.0
20260905171247 92 44 0.9 4.3 0.00 0.06 0.00 63 1012.1
20260905171145 92 44 1.7 5.2 0.00 0.06 0.00 62 1012.1
20260905171043 92 44 1.7 5.2 0.00 0.06 0.00 62 1012.1
20260905170942 93 44 2.6 5.2 0.00 0.06 0.00 61 1012.1
20260905170841 94 44 1.7 5.2 0.00 0.06 0.00 60 1012.1
20260905170736 94 32 0.9 5.2 0.00 0.06 0.00 59 1012.2
20260905170633 94 4 1.7 5.2 0.00 0.06 0.00 58 1012.2
20260905170532 94 3 1.7 5.2 0.00 0.06 0.00 59 1012.2
20260905170430 94 3 2.6 5.2 0.00 0.06 0.00 59 1012.1
20260905170332 94 1 3.5 5.2 0.00 0.06 0.00 59 1012.1
20260905170228 94 6 3.5 5.2 0.00 0.06 0.00 59 1012.1
20260905170126 94 350 3.5 4.3 0.00 0.06 0.00 59 1012.1
20260905170026 94 340 2.6 4.3 0.00 0.06 0.00 61 1012.1
20260905165923 93 6 3.5 5.2 0.00 0.06 0.00 62 1012.1
20260905165823 93 18 2.6 5.2 0.00 0.06 0.00 62 1012.2
20260905165724 93 0 1.7 5.2 0.00 0.06 0.00 63 1012.1
20260905165624 93 347 0.9 5.2 0.00 0.06 0.00 65 1012.2
20260905165523 92 334 0.9 5.2 0.00 0.06 0.00 65 1012.2
20260905165424 92 334 1.7 5.2 0.00 0.06 0.00 64 1012.1
20260905165324 92 306 1.7 5.2 0.00 0.06 0.00 64 1012.2
20260905165223 93 306 1.7 5.2 0.00 0.06 0.00 64 1012.2
20260905165122 93 306 3.5 5.2 0.00 0.06 0.00 65 1012.2
20260905165025 93 307 4.3 5.2 0.00 0.06 0.00 65 1012.2
20260905164923 93 314 2.6 5.2 0.00 0.06 0.00 64 1012.2
20260905164823 93 330 1.7 3.5 0.00 0.06 0.00 63 1012.2
20260905164724 93 299 1.7 3.5 0.00 0.06 0.00 64 1012.2
20260905164624 92 337 0.9 3.5 0.00 0.06 0.00 65 1012.2
20260905164525 92 337 0.9 3.5 0.00 0.06 0.00 64 1012.2
20260905164424 92 314 1.7 3.5 0.00 0.06 0.00 63 1012.2
20260905164324 92 314 1.7 3.5 0.00 0.06 0.00 64 1012.2
20260905164223 91 314 1.7 3.5 0.00 0.06 0.00 64 1012.2
20260905164123 91 314 2.6 3.5 0.00 0.06 0.00 62 1012.2
20260905164024 92 316 2.6 3.5 0.00 0.06 0.00 63 1012.2
20260905163923 92 316 1.7 4.3 0.00 0.06 0.00 63 1012.2
20260905163823 92 319 0.0 4.3 0.00 0.06 0.00 62 1012.3
20260905163723 92 319 0.9 4.3 0.00 0.06 0.00 63 1012.2
20260905163624 92 319 1.7 4.3 0.00 0.06 0.00 64 1012.3
20260905163523 92 319 1.7 4.3 0.00 0.06 0.00 64 1012.3
20260905163423 92 319 1.7 4.3 0.00 0.06 0.00 65 1012.3
20260905163323 92 319 1.7 4.3 0.00 0.06 0.00 64 1012.3
20260905163223 92 317 1.7 4.3 0.00 0.06 0.00 64 1012.3
20260905163123 92 317 2.6 5.2 0.00 0.06 0.00 64 1012.3
20260905163022 92 317 2.6 5.2 0.00 0.06 0.00 63 1012.3
20260905162922 92 313 1.7 5.2 0.00 0.06 0.00 63 1012.3
20260905162823 92 331 1.7 5.2 0.00 0.06 0.00 63 1012.3
20260905162722 92 331 1.7 5.2 0.00 0.06 0.00 61 1012.3
20260905162624 92 331 1.7 5.2 0.00 0.06 0.00 61 1012.4
20260905162523 92 331 2.6 5.2 0.00 0.06 0.00 63 1012.3
20260905162423 92 331 2.6 5.2 0.00 0.06 0.00 64 1012.3
20260905162323 92 320 2.6 5.2 0.00 0.06 0.00 63 1012.3
20260905162223 92 326 2.6 5.2 0.00 0.06 0.00 65 1012.3
20260905162123 92 324 2.6 4.3 0.00 0.06 0.00 65 1012.3
20260905162022 92 326 2.6 4.3 0.00 0.06 0.00 64 1012.4
20260905161924 92 327 2.6 4.3 0.00 0.06 0.00 65 1012.3
20260905161823 92 313 2.6 4.3 0.00 0.06 0.00 67 1012.3
20260905161722 92 0 1.7 4.3 0.00 0.06 0.00 67 1012.3
20260905161623 92 6 1.7 4.3 0.00 0.06 0.00 67 1012.3
20260905161523 92 6 1.7 4.3 0.00 0.06 0.00 67 1012.3
20260905161422 92 6 1.7 4.3 0.00 0.06 0.00 67 1012.3
20260905161322 92 348 1.7 4.3 0.00 0.06 0.00 67 1012.3
20260905161224 92 347 1.7 4.3 0.00 0.06 0.00 68 1012.3
20260905161122 91 345 1.7 4.3 0.00 0.06 0.00 68 1012.3
20260905161024 91 345 1.7 4.3 0.00 0.06 0.00 68 1012.4
20260905160925 91 345 2.6 4.3 0.00 0.06 0.00 68 1012.4
20260905160822 91 0 2.6 4.3 0.00 0.06 0.00 69 1012.3
20260905160722 91 0 2.6 4.3 0.00 0.06 0.00 68 1012.3
20260905160622 91 0 2.6 4.3 0.00 0.06 0.00 68 1012.4
20260905160525 91 0 3.5 4.3 0.00 0.06 0.00 68 1012.4
20260905160421 91 345 3.5 4.3 0.00 0.06 0.00 69 1012.3
20260905160322 91 345 2.6 3.5 0.00 0.06 0.00 69 1012.3
20260905160223 91 324 1.7 3.5 0.00 0.06 0.00 69 1012.3
20260905160122 91 321 0.9 4.3 0.00 0.06 0.00 69 1012.3
20260905160022 91 313 0.9 4.3 0.00 0.06 0.00 69 1012.3
20260905155923 91 258 0.9 4.3 0.00 0.06 0.00 70 1012.3
20260905155822 91 258 0.9 4.3 0.00 0.06 0.00 71 1012.3
20260905155722 90 210 0.9 4.3 0.00 0.06 0.00 71 1012.3
20260905155621 90 124 1.7 5.2 0.00 0.06 0.00 72 1012.3
20260905155521 90 127 1.7 5.2 0.00 0.06 0.00 72 1012.3
20260905155422 90 165 2.6 5.2 0.00 0.06 0.00 72 1012.3
20260905155321 90 193 2.6 5.2 0.00 0.06 0.00 72 1012.3
20260905155221 90 227 3.5 5.2 0.00 0.06 0.00 72 1012.3
20260905155123 90 250 3.5 5.2 0.00 0.06 0.00 73 1012.3
20260905155021 89 238 3.5 5.2 0.00 0.06 0.00 74 1012.3
20260905154921 89 240 3.5 5.2 0.00 0.06 0.00 73 1012.4
20260905154822 89 200 3.5 5.2 0.00 0.06 0.00 73 1012.3
20260905154722 89 257 4.3 5.2 0.00 0.06 0.00 74 1012.3
20260905154621 89 250 4.3 5.2 0.00 0.06 0.00 75 1012.3
20260905154522 89 235 4.3 4.3 0.00 0.06 0.00 75 1012.3
20260905154422 89 251 2.6 3.5 0.00 0.06 0.00 75 1012.3
20260905154323 89 251 2.6 3.5 0.00 0.06 0.00 75 1012.3
20260905154222 89 251 2.6 3.5 0.00 0.06 0.00 75 1012.3
20260905154122 89 261 2.6 4.3 0.00 0.06 0.00 75 1012.3
20260905154022 89 265 2.6 4.3 0.00 0.06 0.00 76 1012.4
20260905153921 89 266 2.6 4.3 0.00 0.06 0.00 75 1012.5
20260905153821 89 282 0.9 4.3 0.00 0.06 0.00 77 1012.5
20260905153722 89 298 0.9 4.3 0.00 0.06 0.00 77 1012.5
20260905153622 89 298 0.0 4.3 0.00 0.06 0.00 77 1012.5
20260905153521 88 298 0.0 4.3 0.00 0.06 0.00 78 1012.5
20260905153423 88 298 0.9 4.3 0.00 0.06 0.00 78 1012.6
20260905153321 88 298 1.7 4.3 0.00 0.06 0.00 78 1012.5
20260905153222 88 298 2.6 4.3 0.00 0.06 0.00 78 1012.6
20260905153123 88 309 2.6 4.3 0.00 0.06 0.00 78 1012.5
20260905153021 88 309 2.6 4.3 0.00 0.06 0.00 78 1012.5
20260905152921 88 310 2.6 4.3 0.00 0.06 0.00 78 1012.5
20260905152821 88 312 2.6 4.3 0.00 0.06 0.00 78 1012.5
20260905152723 88 312 2.6 4.3 0.00 0.06 0.00 77 1012.5
20260905152621 88 313 1.7 4.3 0.00 0.06 0.00 78 1012.4
20260905152521 88 313 2.6 4.3 0.00 0.06 0.00 78 1012.5
20260905152423 88 313 2.6 4.3 0.00 0.06 0.00 79 1012.5
20260905152321 88 320 2.6 4.3 0.00 0.06 0.00 78 1012.4
20260905152221 88 317 3.5 4.3 0.00 0.06 0.00 79 1012.4
20260905152120 88 317 2.6 3.5 0.00 0.06 0.00 79 1012.4
20260905152023 88 347 2.6 3.5 0.00 0.06 0.00 79 1012.4
20260905151921 88 347 2.6 3.5 0.00 0.06 0.00 79 1012.4
20260905151820 88 323 0.9 3.5 0.00 0.06 0.00 79 1012.4
20260905151722 88 316 0.0 0.0 0.00 0.06 0.00 80 1012.4
20260905151622 87 312 0.0 0.0 0.00 0.06 0.00 80 1012.4
20260905151520 87 271 0.0 0.0 0.00 0.06 0.00 80 1012.5
20260905151420 87 271 0.0 0.0 0.00 0.06 0.00 80 1012.4
20260905151322 86 271 0.0 0.0 0.00 0.06 0.00 80 1012.4
20260905151222 86 271 0.0 0.0 0.00 0.06 0.00 80 1012.5
20260905151122 86 271 0.0 0.0 0.00 0.06 0.00 80 1012.5
20260905151021 86 271 0.0 0.0 0.00 0.06 0.00 80 1012.5
20260905150920 86 271 0.0 0.0 0.00 0.06 0.00 81 1012.4
20260905150820 86 271 0.0 0.0 0.00 0.06 0.00 81 1012.5
20260905150721 86 271 0.0 0.0 0.00 0.06 0.00 81 1012.5
20260905150621 86 271 0.0 0.0 0.00 0.06 0.00 82 1012.5
20260905150521 86 337 0.0 0.0 0.00 0.06 0.00 83 1012.5
20260905150420 86 337 0.0 0.0 0.00 0.06 0.00 83 1012.4
20260905150321 86 337 0.0 0.0 0.00 0.06 0.00 83 1012.5
20260905150221 86 337 0.0 0.0 0.00 0.06 0.00 83 1012.4
20260905150120 86 337 0.0 0.0 0.00 0.06 0.00 83 1012.4
20260905150020 86 337 0.0 0.0 0.00 0.06 0.00 83 1012.4
20260905145922 86 337 0.0 0.0 0.00 0.06 0.00 83 1012.4
20260905145820 86 337 0.0 0.0 0.00 0.06 0.00 83 1012.4
20260905145720 86 337 0.0 0.0 0.00 0.06 0.00 82 1012.4
20260905145622 86 337 0.0 0.0 0.00 0.06 0.00 82 1012.4
20260905145521 87 337 0.0 0.0 0.00 0.06 0.00 82 1012.4
20260905145422 87 337 0.0 0.0 0.00 0.06 0.00 82 1012.4
20260905145321 87 0 0.0 0.0 0.00 0.06 0.00 82 1012.4
20260905145223 87 0 0.0 0.0 0.00 0.06 0.00 82 1012.4
20260905145122 87 0 0.0 0.0 0.00 0.06 0.00 83 1012.3
20260905145021 87 25 0.0 0.0 0.00 0.06 0.00 83 1012.4
20260905144923 87 25 0.0 0.0 0.00 0.06 0.00 83 1012.4
20260905144821 87 27 0.0 0.0 0.00 0.06 0.00 84 1012.4
20260905144721 87 27 0.0 0.0 0.00 0.06 0.00 85 1012.3
20260905144621 86 27 0.0 0.0 0.00 0.06 0.00 84 1012.3
20260905144522 86 27 0.0 0.0 0.00 0.06 0.00 84 1012.3
20260905144420 86 27 0.0 0.0 0.00 0.06 0.00 85 1012.3
20260905144320 86 23 0.0 0.0 0.00 0.06 0.00 85 1012.3
20260905144219 86 0 0.0 0.0 0.00 0.06 0.00 85 1012.3
20260905144120 86 0 0.0 0.0 0.00 0.06 0.00 85 1012.3
20260905144020 86 0 0.0 0.0 0.00 0.06 0.00 85 1012.4
20260905143921 86 0 0.0 0.0 0.00 0.06 0.00 85 1012.3
20260905143821 86 0 0.0 0.0 0.00 0.06 0.00 85 1012.4
20260905143722 86 0 0.0 0.0 0.00 0.06 0.00 85 1012.4
20260905143620 86 0 0.0 0.0 0.00 0.06 0.00 85 1012.4
20260905143522 86 13 0.0 0.0 0.00 0.06 0.00 85 1012.4
20260905143419 86 14 0.0 0.0 0.00 0.06 0.00 85 1012.5
20260905143321 86 14 0.0 0.0 0.00 0.06 0.00 86 1012.4
20260905143221 85 49 0.0 0.0 0.00 0.06 0.00 87 1012.5
20260905143121 85 49 0.0 0.0 0.00 0.06 0.00 87 1012.6
20260905143020 85 49 0.0 0.0 0.00 0.06 0.00 87 1012.5
20260905142920 85 344 0.0 0.0 0.00 0.06 0.00 86 1012.5
20260905142820 85 345 0.0 0.0 0.00 0.06 0.00 86 1012.4
20260905142720 85 344 0.0 0.0 0.00 0.06 0.00 87 1012.5
20260905142620 85 345 0.0 0.0 0.00 0.06 0.00 87 1012.5
20260905142520 85 345 0.0 0.0 0.00 0.06 0.00 87 1012.5
20260905142420 85 345 0.0 0.0 0.00 0.06 0.00 87 1012.4
20260905142320 85 345 0.0 0.0 0.00 0.06 0.00 87 1012.4
20260905142219 85 345 0.0 1.7 0.00 0.06 0.00 87 1012.3
20260905142120 85 345 0.0 1.7 0.00 0.06 0.00 87 1012.4
20260905142020 85 345 0.0 2.6 0.00 0.06 0.00 87 1012.3
20260905141920 85 345 0.0 2.6 0.00 0.06 0.00 87 1012.4
20260905141819 85 345 0.0 2.6 0.00 0.06 0.00 87 1012.4
20260905141720 85 345 0.0 2.6 0.00 0.06 0.00 88 1012.4
20260905141620 85 345 0.0 2.6 0.00 0.06 0.00 88 1012.4
20260905141519 85 345 0.0 2.6 0.00 0.06 0.00 88 1012.3
20260905141420 84 345 0.0 2.6 0.00 0.06 0.00 88 1012.3
20260905141319 84 345 0.9 2.6 0.00 0.06 0.00 88 1012.3
20260905141219 84 345 1.7 3.5 0.00 0.06 0.00 88 1012.3
20260905141121 84 345 1.7 3.5 0.00 0.06 0.00 88 1012.4
20260905141019 84 343 1.7 3.5 0.00 0.06 0.00 88 1012.3
20260905140920 84 341 1.7 3.5 0.00 0.06 0.00 89 1012.4
20260905140820 84 341 1.7 3.5 0.00 0.06 0.00 89 1012.4
20260905140720 84 341 0.9 3.5 0.00 0.06 0.00 89 1012.3
20260905140620 84 340 0.0 3.5 0.00 0.06 0.00 89 1012.3
20260905140519 84 340 0.0 3.5 0.00 0.06 0.00 89 1012.3
20260905140420 84 340 0.9 3.5 0.00 0.06 0.00 90 1012.3
20260905140320 84 340 0.9 3.5 0.00 0.06 0.00 90 1012.3
20260905140219 84 331 0.0 2.6 0.00 0.06 0.00 90 1012.2
20260905140119 84 331 0.0 2.6 0.00 0.06 0.00 90 1012.3
20260905140021 84 331 0.0 2.6 0.00 0.06 0.00 90 1012.3
20260905135919 83 331 0.0 2.6 0.00 0.06 0.00 91 1012.2
20260905135819 83 331 0.0 2.6 0.00 0.06 0.00 91 1012.3
20260905135720 83 331 0.0 2.6 0.00 0.06 0.00 91 1012.2
20260905135619 83 331 0.0 2.6 0.00 0.06 0.00 91 1012.3
20260905135520 83 331 0.9 2.6 0.00 0.06 0.00 91 1012.2
20260905135420 83 331 0.9 2.6 0.00 0.06 0.00 91 1012.2
20260905135322 83 331 1.7 2.6 0.00 0.06 0.00 91 1012.2
20260905135219 83 331 0.9 2.6 0.00 0.06 0.00 92 1012.2
20260905135119 83 329 0.9 2.6 0.00 0.06 0.00 92 1012.2
20260905135019 83 329 0.9 2.6 0.00 0.06 0.00 92 1012.2
20260905134919 83 329 0.0 0.0 0.00 0.06 0.00 93 1012.2
20260905134819 83 329 0.0 0.0 0.00 0.06 0.00 93 1012.2
20260905134720 82 329 0.0 0.0 0.00 0.06 0.00 93 1012.2
20260905134618 82 329 0.0 0.0 0.00 0.06 0.00 93 1012.1
20260905134520 82 329 0.0 0.0 0.00 0.06 0.00 93 1012.2
20260905134418 82 329 0.0 0.0 0.00 0.06 0.00 93 1012.1
20260905134319 82 329 0.0 0.0 0.00 0.06 0.00 94 1012.1
20260905134218 82 329 0.0 0.0 0.00 0.06 0.00 94 1012.1
20260905134120 82 327 0.0 0.0 0.00 0.06 0.00 94 1012.1
20260905134018 82 327 0.0 0.9 0.00 0.06 0.00 95 1012.2
20260905133918 82 327 0.0 2.6 0.00 0.06 0.00 95 1012.2
20260905133820 82 327 0.0 3.5 0.00 0.06 0.00 95 1012.2
20260905133719 81 327 0.0 3.5 0.00 0.06 0.00 95 1012.1
20260905133619 81 327 0.0 3.5 0.00 0.06 0.00 95 1012.1
20260905133519 81 327 0.0 3.5 0.00 0.06 0.00 95 1012.1
20260905133418 81 327 0.0 3.5 0.00 0.06 0.00 95 1012.1
20260905133318 81 327 0.0 3.5 0.00 0.06 0.00 95 1012.1
20260905133218 81 327 0.0 3.5 0.00 0.06 0.00 95 1012.1
20260905133119 81 327 0.9 3.5 0.00 0.06 0.00 95 1012.1
20260905133019 81 327 1.7 3.5 0.00 0.06 0.00 95 1012.1
20260905132920 81 327 0.9 2.6 0.00 0.06 0.00 95 1012.1
20260905132820 81 323 0.0 1.7 0.00 0.06 0.00 95 1012.0
20260905132719 81 323 0.0 1.7 0.00 0.06 0.00 96 1012.1
20260905132620 81 307 0.0 1.7 0.00 0.06 0.00 96 1012.1
20260905132520 81 307 0.0 1.7 0.00 0.06 0.00 96 1012.1
20260905132418 81 307 0.0 1.7 0.00 0.06 0.00 96 1012.1
20260905132318 81 307 0.0 1.7 0.00 0.06 0.00 96 1012.2
20260905132220 81 307 0.0 1.7 0.00 0.06 0.00 96 1012.1
20260905132118 81 307 0.0 1.7 0.00 0.06 0.00 96 1012.1
20260905132020 81 307 0.0 1.7 0.00 0.06 0.00 96 1012.2
20260905131920 81 307 0.0 1.7 0.00 0.06 0.00 96 1012.1
20260905131819 81 307 0.0 0.9 0.00 0.06 0.00 96 1012.0
20260905131718 81 307 0.0 0.0 0.00 0.06 0.00 97 1012.1
20260905131619 80 307 0.0 0.0 0.00 0.06 0.00 97 1012.1
20260905131520 80 307 0.0 0.0 0.00 0.06 0.00 97 1012.0
20260905131418 80 307 0.0 0.0 0.00 0.06 0.00 97 1012.0
20260905131318 80 307 0.0 0.0 0.00 0.06 0.00 97 1012.0
20260905131219 80 307 0.0 0.0 0.00 0.06 0.00 97 1012.0
20260905131119 80 307 0.0 0.0 0.00 0.06 0.00 97 1012.1
20260905131019 80 307 0.0 0.0 0.00 0.06 0.00 97 1012.1
20260905130918 80 307 0.0 0.0 0.00 0.06 0.00 97 1012.0
20260905130819 80 307 0.0 0.0 0.00 0.06 0.00 97 1012.1
20260905130718 80 307 0.0 0.0 0.00 0.06 0.00 97 1012.0
20260905130618 80 307 0.0 0.0 0.00 0.06 0.00 97 1012.0
20260905130520 80 307 0.0 0.0 0.00 0.06 0.00 97 1012.0
20260905130419 79 307 0.0 0.0 0.00 0.06 0.00 97 1012.0
20260905130319 79 307 0.0 0.0 0.00 0.06 0.00 97 1012.0
20260905130219 79 307 0.0 0.0 0.00 0.06 0.00 97 1012.0
20260905130118 79 307 0.0 0.0 0.00 0.06 0.00 97 1012.0
20260905130019 79 307 0.0 0.0 0.00 0.06 0.00 97 1012.0
20260905125918 79 307 0.0 0.0 0.00 0.06 0.00 97 1012.0
20260905125818 79 307 0.0 0.0 0.00 0.06 0.00 97 1012.0
20260905125718 79 307 0.0 0.0 0.00 0.06 0.00 97 1012.0
20260905125618 79 307 0.0 0.0 0.00 0.06 0.00 97 1012.0
20260905125517 79 307 0.0 0.0 0.00 0.06 0.00 97 1011.9
20260905125419 78 307 0.0 0.0 0.00 0.06 0.00 97 1011.9
20260905125317 78 307 0.0 0.0 0.00 0.06 0.00 97 1011.9
20260905125217 78 307 0.0 0.0 0.00 0.06 0.00 97 1011.9
20260905125118 78 307 0.0 0.0 0.00 0.06 0.00 97 1011.9
20260905125017 78 307 0.0 0.0 0.00 0.06 0.00 97 1011.9
20260905124917 78 196 0.0 0.0 0.00 0.06 0.00 97 1011.9
20260905124817 78 0 0.0 0.0 0.00 0.06 0.00 97 1011.9
20260905124718 78 274 0.0 0.0 0.00 0.06 0.00 97 1011.9
20260905124617 78 305 0.0 0.0 0.00 0.06 0.00 97 1011.9
20260905124517 78 306 0.0 0.0 0.00 0.06 0.00 97 1012.0
20260905124419 78 298 0.0 0.0 0.00 0.06 0.00 97 1012.0
20260905124317 78 306 0.0 0.0 0.00 0.06 0.00 97 1012.0
20260905124217 78 306 0.0 0.0 0.00 0.06 0.00 97 1011.9
20260905124117 78 307 0.0 0.0 0.00 0.06 0.00 97 1012.0
20260905124017 78 307 0.0 0.0 0.00 0.06 0.00 97 1012.0
20260905123918 78 307 0.0 0.0 0.00 0.06 0.00 97 1011.9
20260905123817 78 307 0.0 0.0 0.00 0.06 0.00 97 1011.9
20260905123719 78 307 0.0 0.0 0.00 0.06 0.00 97 1011.9
20260905123617 78 303 0.0 0.0 0.00 0.06 0.00 97 1011.9
20260905123519 78 306 0.0 0.0 0.00 0.06 0.00 97 1011.9
20260905123417 78 306 0.0 0.0 0.00 0.06 0.00 97 1011.8
20260905123317 78 306 0.0 0.0 0.00 0.06 0.00 97 1011.8
20260905123217 78 306 0.0 0.0 0.00 0.06 0.00 97 1011.8
20260905123117 78 306 0.0 0.0 0.00 0.06 0.00 97 1011.8
20260905123018 78 306 0.0 0.0 0.00 0.06 0.00 97 1011.8
20260905122918 78 305 0.0 0.0 0.00 0.06 0.00 97 1011.8
20260905122818 78 302 0.0 0.9 0.00 0.06 0.00 97 1011.8
20260905122718 78 286 0.0 1.7 0.00 0.06 0.00 97 1011.8
20260905122618 78 290 0.0 1.7 0.00 0.06 0.00 97 1011.8
20260905122517 78 295 0.0 1.7 0.00 0.06 0.00 97 1011.8
20260905122417 78 296 0.0 1.7 0.00 0.06 0.00 97 1011.8
20260905122319 78 296 0.0 1.7 0.00 0.06 0.00 97 1011.7
20260905122218 78 296 0.0 1.7 0.00 0.06 0.00 97 1011.7
20260905122117 78 296 0.0 1.7 0.00 0.06 0.00 97 1011.8
20260905122016 77 295 0.0 1.7 0.00 0.06 0.00 97 1011.7
20260905121917 77 295 0.9 1.7 0.00 0.06 0.00 97 1011.7
20260905121816 77 295 0.9 1.7 0.00 0.06 0.00 97 1011.6
20260905121718 77 295 0.0 1.7 0.00 0.06 0.00 97 1011.6
20260905121618 77 293 0.0 0.9 0.00 0.06 0.00 97 1011.7
20260905121517 77 295 0.0 0.9 0.00 0.06 0.00 97 1011.6
20260905121417 77 293 0.0 0.9 0.00 0.06 0.00 97 1011.6
20260905121316 77 293 0.0 0.9 0.00 0.06 0.00 97 1011.6
20260905121216 77 293 0.0 0.9 0.00 0.06 0.00 97 1011.7
20260905121117 77 293 0.0 0.9 0.00 0.06 0.00 97 1011.6
20260905121017 77 293 0.0 0.9 0.00 0.06 0.00 97 1011.6
20260905120918 77 293 0.0 0.9 0.00 0.06 0.00 97 1011.6
20260905120816 77 293 0.0 0.9 0.00 0.06 0.00 97 1011.6
20260905120716 78 293 0.0 0.9 0.00 0.06 0.00 97 1011.7
20260905120617 77 295 0.0 0.9 0.00 0.06 0.00 97 1011.6
20260905120516 78 295 0.0 0.0 0.00 0.06 0.00 97 1011.6
20260905120416 78 295 0.0 0.0 0.00 0.06 0.00 97 1011.5
20260905120316 77 295 0.0 0.0 0.00 0.06 0.00 97 1011.5
20260905120217 77 293 0.0 0.0 0.00 0.06 0.00 97 1011.5
20260905120117 77 295 0.0 0.0 0.00 0.06 0.00 97 1011.5
20260905120018 77 295 0.0 0.0 0.00 0.06 0.00 97 1011.5
20260905115916 77 295 0.0 0.0 0.00 0.06 0.00 97 1011.4
20260905115817 77 295 0.0 0.0 0.00 0.06 0.00 97 1011.4
20260905115717 78 295 0.0 0.0 0.00 0.06 0.00 97 1011.4
20260905115617 78 295 0.0 0.0 0.00 0.06 0.00 97 1011.4
20260905115518 77 295 0.0 0.0 0.00 0.06 0.00 97 1011.3
20260905115417 77 295 0.0 0.9 0.00 0.06 0.00 97 1011.3
20260905115316 77 295 0.0 0.9 0.00 0.06 0.00 97 1011.3
20260905115217 77 295 0.0 0.9 0.00 0.06 0.00 97 1011.3
20260905115117 77 295 0.0 0.9 0.00 0.06 0.00 97 1011.3
20260905115017 78 295 0.0 0.9 0.00 0.06 0.00 97 1011.3
20260905114916 77 295 0.0 1.7 0.00 0.06 0.00 97 1011.3
20260905114816 77 295 0.0 1.7 0.00 0.06 0.00 97 1011.3
20260905114716 77 295 0.0 1.7 0.00 0.06 0.00 97 1011.3
20260905114616 77 295 0.0 1.7 0.00 0.06 0.00 97 1011.2
20260905114518 77 295 0.0 1.7 0.00 0.06 0.00 97 1011.2
20260905114416 77 295 0.0 1.7 0.00 0.06 0.00 97 1011.2
20260905114315 77 295 0.0 1.7 0.00 0.06 0.00 97 1011.2
20260905114217 77 295 0.0 1.7 0.00 0.06 0.00 97 1011.2
20260905114117 77 295 0.9 1.7 0.00 0.06 0.00 97 1011.2
20260905114016 77 295 0.9 1.7 0.00 0.06 0.00 97 1011.1
20260905113916 77 295 0.9 1.7 0.00 0.06 0.00 97 1011.2
20260905113818 77 295 0.0 1.7 0.00 0.06 0.00 97 1011.2
20260905113716 77 197 0.0 0.0 0.00 0.06 0.00 97 1011.2
20260905113616 77 197 0.0 0.0 0.00 0.06 0.00 97 1011.2
20260905113516 77 197 0.0 0.0 0.00 0.06 0.00 97 1011.2
20260905113416 77 197 0.0 0.0 0.00 0.06 0.00 97 1011.2
20260905113317 77 197 0.0 0.0 0.00 0.06 0.00 97 1011.2
20260905113216 77 197 0.0 0.0 0.00 0.06 0.00 97 1011.2
20260905113116 77 197 0.0 0.0 0.00 0.06 0.00 97 1011.2
20260905113016 77 197 0.0 0.0 0.00 0.06 0.00 97 1011.1
20260905112916 77 199 0.0 0.0 0.00 0.06 0.00 97 1011.1
20260905112815 77 199 0.0 0.0 0.00 0.06 0.00 97 1011.0
20260905112715 77 199 0.0 0.0 0.00 0.06 0.00 97 1011.0
20260905112618 77 199 0.0 0.0 0.00 0.06 0.00 97 1011.0
20260905112516 77 199 0.0 0.0 0.00 0.06 0.00 97 1010.9
20260905112416 77 199 0.0 0.0 0.00 0.06 0.00 97 1010.9
20260905112316 77 200 0.0 0.0 0.00 0.06 0.00 97 1010.9
20260905112215 77 200 0.0 0.0 0.00 0.06 0.00 97 1010.9
20260905112116 77 200 0.0 0.0 0.00 0.06 0.00 97 1011.0
20260905112016 77 202 0.0 0.0 0.00 0.06 0.00 97 1011.0
20260905111915 78 202 0.0 0.0 0.00 0.06 0.00 97 1011.0
20260905111815 78 202 0.0 0.0 0.00 0.06 0.00 97 1010.9
20260905111717 78 202 0.0 0.0 0.00 0.06 0.00 97 1010.9
20260905111617 78 202 0.0 0.0 0.00 0.06 0.00 97 1010.9
20260905111517 78 202 0.0 0.0 0.00 0.06 0.00 97 1010.9
20260905111416 78 202 0.0 0.0 0.00 0.06 0.00 97 1010.8
20260905111316 78 202 0.0 0.0 0.00 0.06 0.00 97 1010.9
20260905111215 78 202 0.0 0.0 0.00 0.06 0.00 97 1010.9
20260905111115 78 202 0.0 0.0 0.00 0.06 0.00 97 1010.9
20260905111017 78 202 0.0 0.0 0.00 0.06 0.00 97 1010.9
20260905110915 78 202 0.0 0.0 0.00 0.06 0.00 97 1010.9
20260905110815 77 203 0.0 0.0 0.00 0.06 0.00 97 1011.0
20260905110716 78 203 0.0 0.0 0.00 0.06 0.00 97 1010.8
20260905110615 78 203 0.0 0.0 0.00 0.06 0.00 97 1010.9
20260905110515 78 203 0.0 0.0 0.00 0.06 0.00 97 1010.9
20260905110416 78 203 0.0 0.0 0.00 0.06 0.00 97 1010.9
20260905110317 78 203 0.0 0.0 0.00 0.06 0.00 97 1010.9
20260905110215 78 203 0.0 0.0 0.00 0.06 0.00 97 1010.9
20260905110116 78 203 0.0 0.0 0.00 0.06 0.00 97 1010.8
20260905110016 78 203 0.0 0.0 0.00 0.06 0.00 97 1010.9
20260905105915 78 203 0.0 0.0 0.00 0.06 0.00 97 1010.8
20260905105816 78 203 0.0 0.0 0.00 0.06 0.00 97 1010.8
20260905105716 78 203 0.0 0.0 0.00 0.06 0.00 97 1010.8
20260905105615 78 203 0.0 0.0 0.00 0.06 0.00 97 1010.8
20260905105514 78 203 0.0 0.0 0.00 0.06 0.00 97 1010.8
20260905105415 78 203 0.0 0.0 0.00 0.06 0.00 97 1010.8
20260905105317 78 203 0.0 0.0 0.00 0.06 0.00 97 1010.9
20260905105216 78 203 0.0 0.0 0.00 0.06 0.00 97 1010.9
20260905105114 78 203 0.0 0.0 0.00 0.06 0.00 97 1010.8
20260905105016 78 203 0.0 0.0 0.00 0.06 0.00 97 1010.9
20260905104916 78 203 0.0 0.0 0.00 0.06 0.00 97 1010.9
20260905104815 78 203 0.0 0.0 0.00 0.06 0.00 97 1010.9
20260905104714 78 203 0.0 0.0 0.00 0.06 0.00 97 1010.8
20260905104614 78 203 0.0 0.0 0.00 0.06 0.00 97 1010.9
20260905104511 78 203 0.0 0.0 0.00 0.06 0.00 97 1010.8
20260905104410 78 203 0.0 0.0 0.00 0.06 0.00 97 1010.9
20260905104307 78 203 0.0 0.0 0.00 0.06 0.00 97 1010.8
20260905104206 78 203 0.0 0.0 0.00 0.06 0.00 97 1010.8
20260905104104 78 203 0.0 0.0 0.00 0.06 0.00 97 1010.8
20260905104004 78 203 0.0 0.0 0.00 0.06 0.00 97 1010.8
20260905103902 78 203 0.0 0.0 0.00 0.06 0.00 97 1010.8
20260905103802 78 203 0.0 0.0 0.00 0.06 0.00 97 1010.8
20260905103701 78 203 0.0 0.0 0.00 0.06 0.00 97 1010.8
20260905103601 78 203 0.0 0.0 0.00 0.06 0.00 97 1010.8
20260905103502 78 203 0.0 0.0 0.00 0.06 0.00 97 1010.8
20260905103403 78 203 0.0 0.0 0.00 0.06 0.00 97 1010.8
20260905103301 78 203 0.0 0.0 0.00 0.06 0.00 97 1010.8
20260905103200 78 203 0.0 0.0 0.00 0.06 0.00 97 1010.9
20260905103058 78 203 0.0 0.0 0.00 0.06 0.00 97 1010.8
20260905102956 78 203 0.0 0.0 0.00 0.06 0.00 97 1010.9
20260905102855 78 203 0.0 0.0 0.00 0.06 0.00 97 1010.8
20260905102755 78 203 0.0 0.0 0.00 0.06 0.00 97 1010.8
20260905102652 78 203 0.0 0.0 0.00 0.06 0.00 97 1010.9
20260905102551 78 203 0.0 0.0 0.00 0.06 0.00 96 1010.8
20260905102450 78 203 0.0 0.0 0.00 0.06 0.00 96 1010.8
20260905102347 78 203 0.0 0.0 0.00 0.06 0.00 96 1010.8
20260905102247 78 203 0.0 0.0 0.00 0.06 0.00 96 1010.9
20260905102144 78 203 0.0 0.0 0.00 0.06 0.00 96 1010.9
20260905102043 78 203 0.0 0.0 0.00 0.06 0.00 96 1010.8
20260905101943 78 203 0.0 0.0 0.00 0.06 0.00 96 1010.8
20260905101841 78 203 0.0 0.0 0.00 0.06 0.00 97 1010.8
20260905101738 78 203 0.0 0.0 0.00 0.06 0.00 97 1010.9
20260905101638 78 203 0.0 0.0 0.00 0.06 0.00 97 1010.8
20260905101535 78 203 0.0 0.0 0.00 0.06 0.00 96 1010.8
20260905101435 78 203 0.0 0.0 0.00 0.06 0.00 97 1010.8
20260905101332 78 203 0.0 0.0 0.00 0.06 0.00 96 1010.7
20260905101232 78 204 0.0 0.0 0.00 0.06 0.00 96 1010.8
20260905101132 78 204 0.0 0.0 0.00 0.06 0.00 96 1010.8
20260905101031 78 204 0.0 0.0 0.00 0.06 0.00 96 1010.9
20260905100931 78 204 0.0 0.0 0.00 0.06 0.00 96 1010.8
20260905100831 78 204 0.0 0.0 0.00 0.06 0.00 96 1010.8
20260905100732 78 204 0.0 0.0 0.00 0.06 0.00 96 1010.9
20260905100631 78 204 0.0 0.0 0.00 0.06 0.00 96 1010.8
20260905100532 78 204 0.0 0.0 0.00 0.06 0.00 96 1010.8
20260905100432 78 204 0.0 0.0 0.00 0.06 0.00 96 1010.8
20260905100318 78 204 0.0 0.0 0.00 0.06 0.00 96 1010.8
20260905100214 78 204 0.0 0.0 0.00 0.06 0.00 96 1010.8
20260905100115 78 204 0.0 0.0 0.00 0.06 0.00 96 1010.8
20260905100015 78 204 0.0 0.0 0.00 0.06 0.00 96 1010.8
20260905095914 78 204 0.0 0.0 0.00 0.06 0.00 96 1010.8
20260905095813 78 204 0.0 0.0 0.00 0.06 0.00 97 1010.6
20260905095713 78 204 0.0 0.0 0.00 0.06 0.00 96 1010.8
20260905095613 78 204 0.0 0.0 0.00 0.06 0.00 96 1010.8
20260905095513 78 204 0.0 0.0 0.00 0.06 0.00 96 1010.8
20260905095415 78 204 0.0 0.0 0.00 0.06 0.00 96 1010.8
20260905095313 78 204 0.0 0.0 0.00 0.06 0.00 96 1010.8
20260905095213 78 204 0.0 0.0 0.00 0.06 0.00 96 1010.8
20260905095113 78 204 0.0 0.0 0.00 0.06 0.00 96 1010.8
20260905095014 78 204 0.0 0.0 0.00 0.06 0.00 96 1010.8
20260905094916 78 204 0.0 0.0 0.00 0.06 0.00 96 1010.8
20260905094814 78 204 0.0 0.0 0.00 0.06 0.00 96 1010.8
20260905094715 78 204 0.0 0.0 0.00 0.06 0.00 96 1010.8
20260905094614 78 204 0.0 0.0 0.00 0.06 0.00 96 1010.8
20260905094509 78 204 0.0 0.0 0.00 0.06 0.00 96 1010.8
20260905094406 78 204 0.0 0.0 0.00 0.06 0.00 96 1010.8
20260905094305 78 204 0.0 0.0 0.00 0.06 0.00 96 1010.7
20260905094203 78 204 0.0 0.0 0.00 0.06 0.00 96 1010.8
20260905094103 78 204 0.0 0.0 0.00 0.06 0.00 96 1010.8
20260905094004 78 204 0.0 0.0 0.00 0.06 0.00 96 1010.7
20260905093902 78 204 0.0 0.0 0.00 0.06 0.00 96 1010.8
20260905093802 78 204 0.0 0.0 0.00 0.06 0.00 96 1010.7
20260905093702 78 204 0.0 0.0 0.00 0.06 0.00 96 1010.7
20260905093603 78 204 0.0 0.0 0.00 0.06 0.00 96 1010.7
20260905093502 78 204 0.0 0.0 0.00 0.06 0.00 96 1010.7
20260905093401 78 204 0.0 0.0 0.00 0.06 0.00 96 1010.6
20260905093334 78 204 0.0 0.0 0.00 0.06 0.00 96 1010.7
20260905093203 78 204 0.0 0.0 0.00 0.06 0.00 96 1010.7
20260905093102 78 204 0.0 0.0 0.00 0.06 0.00 96 1010.7
20260905093002 78 204 0.0 0.0 0.00 0.06 0.00 96 1010.7
20260905092902 78 204 0.0 0.0 0.00 0.06 0.00 96 1010.7
20260905092804 78 204 0.0 0.0 0.00 0.06 0.00 96 1010.8
20260905092703 78 204 0.0 0.0 0.00 0.06 0.00 96 1010.7
20260905092603 78 204 0.0 0.0 0.00 0.06 0.00 96 1010.7
20260905092502 78 204 0.0 0.0 0.00 0.06 0.00 96 1010.7
20260905092401 78 204 0.0 0.0 0.00 0.06 0.00 96 1010.8
20260905092300 78 204 0.0 0.0 0.00 0.06 0.00 96 1010.7
20260905092200 78 204 0.0 0.0 0.00 0.06 0.00 96 1010.7
20260905092101 78 204 0.0 0.0 0.00 0.06 0.00 96 1010.8
20260905092001 78 204 0.0 0.0 0.00 0.06 0.00 96 1010.7
20260905091857 78 204 0.0 0.0 0.00 0.06 0.00 96 1010.8
20260905091756 78 204 0.0 0.0 0.00 0.06 0.00 96 1010.7
20260905091655 78 204 0.0 0.0 0.00 0.06 0.00 96 1010.8
20260905091554 78 204 0.0 0.0 0.00 0.06 0.00 96 1010.7
20260905091450 78 204 0.0 0.0 0.00 0.06 0.00 96 1010.7
20260905091351 78 204 0.0 0.0 0.00 0.06 0.00 96 1010.8
20260905091247 78 204 0.0 0.0 0.00 0.06 0.00 96 1010.8
20260905091147 78 204 0.0 0.0 0.00 0.06 0.00 96 1010.8
20260905091046 78 204 0.0 0.0 0.00 0.06 0.00 96 1010.8
20260905090944 78 204 0.0 0.0 0.00 0.06 0.00 96 1010.8
20260905090843 78 204 0.0 0.0 0.00 0.06 0.00 96 1010.8
20260905090741 78 204 0.0 0.0 0.00 0.06 0.00 96 1010.8
20260905090640 78 204 0.0 0.0 0.00 0.06 0.00 96 1010.8
20260905090538 78 204 0.0 0.0 0.00 0.06 0.00 96 1010.7
20260905090437 78 204 0.0 0.0 0.00 0.06 0.00 96 1010.8
20260905090332 78 204 0.0 0.0 0.00 0.06 0.00 96 1010.7
20260905090234 78 168 0.0 0.0 0.00 0.06 0.00 96 1010.7
20260905090132 78 168 0.0 0.0 0.00 0.06 0.00 96 1010.8
20260905090032 78 168 0.0 0.0 0.00 0.06 0.00 96 1010.7
20260905085932 78 168 0.0 0.0 0.00 0.06 0.00 96 1010.7
20260905085832 78 168 0.0 0.0 0.00 0.06 0.00 96 1010.7
20260905085731 78 168 0.0 0.0 0.00 0.06 0.00 96 1010.8
20260905085631 78 168 0.0 0.0 0.00 0.06 0.00 96 1010.7
20260905085531 78 168 0.0 0.0 0.00 0.06 0.00 96 1010.7
20260905085433 78 168 0.0 0.0 0.00 0.06 0.00 96 1010.8
20260905085331 78 168 0.0 0.0 0.00 0.06 0.00 96 1010.8
20260905085232 78 168 0.0 0.0 0.00 0.06 0.00 96 1010.7
20260905085133 78 168 0.0 0.0 0.00 0.06 0.00 96 1010.8
20260905085032 78 168 0.0 0.0 0.00 0.06 0.00 96 1010.8
20260905084931 78 168 0.0 0.0 0.00 0.06 0.00 96 1010.8
20260905084832 78 168 0.0 0.9 0.00 0.06 0.00 96 1010.8
20260905084732 78 168 0.0 0.9 0.00 0.06 0.00 96 1010.8
20260905084630 78 168 0.0 1.7 0.00 0.06 0.00 96 1010.8
20260905084532 78 168 0.0 1.7 0.00 0.06 0.00 96 1010.8
20260905084432 78 168 0.0 1.7 0.00 0.06 0.00 96 1010.8
20260905084330 78 168 0.0 1.7 0.00 0.06 0.00 96 1010.7
20260905084228 78 168 0.0 1.7 0.00 0.06 0.00 96 1010.7
20260905084127 78 168 0.0 1.7 0.00 0.06 0.00 96 1010.6
20260905084027 78 168 0.0 1.7 0.00 0.06 0.00 95 1010.7
20260905083926 78 168 0.0 1.7 0.00 0.06 0.00 95 1010.6
20260905083824 78 168 0.9 1.7 0.00 0.06 0.00 95 1010.6
20260905083721 78 168 0.9 1.7 0.00 0.06 0.00 95 1010.6
20260905083621 78 168 0.9 1.7 0.00 0.06 0.00 95 1010.5
20260905083519 78 168 0.9 1.7 0.00 0.06 0.00 95 1010.6
20260905083415 78 168 0.0 0.9 0.00 0.06 0.00 95 1010.6
20260905083312 78 168 0.0 0.0 0.00 0.06 0.00 95 1010.6
20260905083211 78 168 0.0 0.0 0.00 0.06 0.00 95 1010.5
20260905083113 78 168 0.0 0.0 0.00 0.06 0.00 95 1010.5
20260905083013 78 168 0.0 0.0 0.00 0.06 0.00 95 1010.4
20260905082912 78 168 0.0 0.0 0.00 0.06 0.00 95 1010.4
20260905082811 78 168 0.0 0.0 0.00 0.06 0.00 95 1010.4
20260905082713 79 168 0.0 0.0 0.00 0.06 0.00 95 1010.4
20260905082611 79 169 0.0 0.0 0.00 0.06 0.00 95 1010.4
20260905082511 79 168 0.0 0.0 0.00 0.06 0.00 95 1010.3
20260905082413 79 168 0.0 0.0 0.00 0.06 0.00 95 1010.4
20260905082311 79 168 0.0 0.0 0.00 0.06 0.00 95 1010.4
20260905082212 79 168 0.0 0.0 0.00 0.06 0.00 95 1010.4
20260905082112 79 169 0.0 0.0 0.00 0.06 0.00 95 1010.4
20260905082012 79 169 0.0 0.0 0.00 0.06 0.00 95 1010.5
20260905081911 79 169 0.0 0.0 0.00 0.06 0.00 95 1010.4
20260905081814 79 169 0.0 0.0 0.00 0.06 0.00 95 1010.4
20260905081712 79 169 0.0 0.0 0.00 0.06 0.00 95 1010.4
20260905081612 79 169 0.0 0.0 0.00 0.06 0.00 95 1010.5
20260905081512 79 169 0.0 0.0 0.00 0.06 0.00 95 1010.4
20260905081412 79 169 0.0 0.0 0.00 0.06 0.00 95 1010.4
20260905081312 79 169 0.0 0.0 0.00 0.06 0.00 95 1010.5
20260905081211 79 169 0.0 0.0 0.00 0.06 0.00 95 1010.5
20260905081111 79 169 0.0 0.0 0.00 0.06 0.00 95 1010.5
20260905081012 79 169 0.0 0.0 0.00 0.06 0.00 95 1010.5
20260905080911 79 169 0.0 0.0 0.00 0.06 0.00 95 1010.5
20260905080813 79 169 0.0 0.0 0.00 0.06 0.00 95 1010.6
20260905080714 79 169 0.0 0.0 0.00 0.06 0.00 95 1010.5
20260905080611 79 169 0.0 0.0 0.00 0.06 0.00 95 1010.6
20260905080512 79 169 0.0 0.0 0.00 0.06 0.00 95 1010.6
20260905080413 79 169 0.0 0.0 0.00 0.06 0.00 95 1010.6
20260905080312 79 169 0.0 0.0 0.00 0.06 0.00 95 1010.5
20260905080212 79 169 0.0 0.0 0.00 0.06 0.00 95 1010.6
20260905080112 79 169 0.0 0.0 0.00 0.06 0.00 95 1010.6
20260905080012 79 169 0.0 0.0 0.00 0.06 0.00 95 1010.5
20260905075913 79 169 0.0 0.0 0.00 0.06 0.00 95 1010.4
20260905075811 79 169 0.0 0.0 0.00 0.06 0.00 95 1010.5
20260905075711 79 169 0.0 0.0 0.00 0.06 0.00 95 1010.5
20260905075613 79 169 0.0 0.0 0.00 0.06 0.00 95 1010.5
20260905075510 79 169 0.0 0.0 0.00 0.06 0.00 95 1010.5
20260905075412 79 169 0.0 0.0 0.00 0.06 0.00 95 1010.5
20260905075312 79 169 0.0 0.0 0.00 0.06 0.00 95 1010.6
20260905075212 79 169 0.0 0.0 0.00 0.06 0.00 95 1010.5
20260905075111 79 169 0.0 0.0 0.00 0.06 0.00 95 1010.5
20260905075011 79 169 0.0 0.0 0.00 0.06 0.00 95 1010.6
20260905074913 79 169 0.0 0.0 0.00 0.06 0.00 95 1010.6
20260905074811 79 169 0.0 0.0 0.00 0.06 0.00 95 1010.5
20260905074710 79 169 0.0 0.0 0.00 0.06 0.00 95 1010.5
20260905074610 79 169 0.0 0.0 0.00 0.06 0.00 94 1010.5
20260905074511 79 169 0.0 0.0 0.00 0.06 0.00 94 1010.5
20260905074410 79 169 0.0 0.0 0.00 0.06 0.00 94 1010.5
20260905074310 79 169 0.0 0.0 0.00 0.06 0.00 94 1010.6
20260905074211 79 169 0.0 0.0 0.00 0.06 0.00 94 1010.6
20260905074110 79 169 0.0 0.0 0.00 0.06 0.00 94 1010.6
20260905074010 79 169 0.0 0.0 0.00 0.06 0.00 94 1010.7
20260905073912 79 169 0.0 0.0 0.00 0.06 0.00 95 1010.6
20260905073811 79 169 0.0 0.0 0.00 0.06 0.00 94 1010.6
20260905073710 79 169 0.0 0.0 0.00 0.06 0.00 94 1010.5
20260905073610 79 169 0.0 0.0 0.00 0.06 0.00 94 1010.6
20260905073511 79 169 0.0 0.0 0.00 0.06 0.00 94 1010.6
20260905073411 79 169 0.0 0.0 0.00 0.06 0.00 94 1010.6
20260905073311 79 169 0.0 0.0 0.00 0.06 0.00 94 1010.6
20260905073211 79 169 0.0 0.0 0.00 0.06 0.00 94 1010.6
20260905073110 79 169 0.0 0.0 0.00 0.06 0.00 94 1010.7
20260905073010 79 169 0.0 0.0 0.00 0.06 0.00 94 1010.7
20260905072911 79 169 0.0 0.0 0.00 0.06 0.00 94 1010.8
20260905072811 79 169 0.0 0.0 0.00 0.06 0.00 94 1010.8
20260905072710 80 169 0.0 0.0 0.00 0.06 0.00 94 1010.8
20260905072610 80 169 0.0 0.0 0.00 0.06 0.00 94 1010.8
20260905072511 80 169 0.0 0.0 0.00 0.06 0.00 94 1010.8
20260905072411 80 169 0.0 0.0 0.00 0.06 0.00 94 1010.8
20260905072311 79 169 0.0 0.0 0.00 0.06 0.00 94 1010.8
20260905072211 79 169 0.0 0.0 0.00 0.06 0.00 94 1010.8
20260905072110 79 169 0.0 0.0 0.00 0.06 0.00 94 1010.9
20260905072010 79 169 0.0 0.0 0.00 0.06 0.00 94 1010.9
20260905071910 79 169 0.0 0.0 0.00 0.06 0.00 94 1011.0
20260905071811 79 169 0.0 0.0 0.00 0.06 0.00 94 1010.9
20260905071710 79 169 0.0 0.0 0.00 0.06 0.00 94 1010.9
20260905071610 80 169 0.0 0.0 0.00 0.06 0.00 94 1011.0
20260905071511 80 169 0.0 0.0 0.00 0.06 0.00 94 1011.0
20260905071410 80 169 0.0 0.0 0.00 0.06 0.00 94 1011.0
20260905071310 80 169 0.0 0.0 0.00 0.06 0.00 94 1011.0
20260905071209 80 169 0.0 0.0 0.00 0.06 0.00 94 1011.0
20260905071111 80 169 0.0 0.0 0.00 0.06 0.00 94 1011.0
20260905071011 80 169 0.0 0.0 0.00 0.06 0.00 94 1011.1
20260905070910 80 169 0.0 0.0 0.00 0.06 0.00 94 1011.0
20260905070811 80 169 0.0 0.0 0.00 0.06 0.00 94 1011.0
20260905070711 80 169 0.0 0.0 0.00 0.06 0.00 94 1011.1
20260905070611 80 169 0.0 0.0 0.00 0.06 0.00 94 1011.1
20260905070510 80 169 0.0 0.0 0.00 0.06 0.00 94 1011.0
20260905070411 80 169 0.0 0.0 0.00 0.06 0.00 94 1011.0
20260905070311 80 169 0.0 0.0 0.00 0.06 0.00 94 1011.0
20260905070209 80 169 0.0 0.0 0.00 0.06 0.00 94 1011.1
20260905070109 80 169 0.0 0.0 0.00 0.06 0.00 93 1011.1
20260905070011 80 169 0.0 0.0 0.00 0.06 0.00 93 1011.1
20260905065910 80 169 0.0 0.0 0.00 0.06 0.00 93 1011.1
20260905065810 80 169 0.0 0.0 0.00 0.06 0.00 93 1011.1
20260905065711 80 169 0.0 0.0 0.00 0.06 0.00 93 1011.1
20260905065609 80 169 0.0 0.0 0.00 0.06 0.00 93 1011.1
20260905065509 80 169 0.0 0.0 0.00 0.06 0.00 93 1011.1
20260905065410 80 169 0.0 0.0 0.00 0.06 0.00 93 1011.1
20260905065310 80 169 0.0 0.0 0.00 0.06 0.00 93 1011.2
20260905065210 80 169 0.0 0.0 0.00 0.06 0.00 93 1011.2
20260905065110 80 169 0.0 0.0 0.00 0.06 0.00 93 1011.2
20260905065010 80 169 0.0 0.0 0.00 0.06 0.00 93 1011.1
20260905064910 80 169 0.0 0.0 0.00 0.06 0.00 93 1011.1
20260905064810 80 169 0.0 0.0 0.00 0.06 0.00 93 1011.1
20260905064710 80 169 0.0 0.0 0.00 0.06 0.00 93 1011.2
20260905064609 80 169 0.0 0.0 0.00 0.06 0.00 93 1011.1
20260905064509 80 169 0.0 0.0 0.00 0.06 0.00 93 1011.2
20260905064409 80 169 0.0 0.0 0.00 0.06 0.00 93 1011.1
20260905064311 80 169 0.0 0.0 0.00 0.06 0.00 93 1011.1
20260905064209 80 169 0.0 0.0 0.00 0.06 0.00 93 1011.2
20260905064110 80 169 0.0 0.0 0.00 0.06 0.00 93 1011.3
20260905064011 80 169 0.0 0.0 0.00 0.06 0.00 93 1011.2
20260905063909 80 169 0.0 0.0 0.00 0.06 0.00 93 1011.3
20260905063809 80 169 0.0 0.0 0.00 0.06 0.00 93 1011.3
20260905063709 80 169 0.0 0.0 0.00 0.06 0.00 93 1011.2
20260905063610 80 169 0.0 0.0 0.00 0.06 0.00 93 1011.2
20260905063509 80 169 0.0 0.0 0.00 0.06 0.00 93 1011.2
20260905063409 80 169 0.0 0.0 0.00 0.06 0.00 92 1011.2
20260905063310 80 169 0.0 0.0 0.00 0.06 0.00 92 1011.2
20260905063210 80 169 0.0 0.0 0.00 0.06 0.00 92 1011.3
20260905063110 80 169 0.0 0.0 0.00 0.06 0.00 92 1011.3
20260905063011 80 169 0.0 0.0 0.00 0.06 0.00 92 1011.3
20260905062910 80 169 0.0 0.0 0.00 0.06 0.00 92 1011.3
20260905062809 80 169 0.0 0.0 0.00 0.06 0.00 92 1011.3
20260905062708 80 169 0.0 0.0 0.00 0.06 0.00 92 1011.4
20260905062610 80 169 0.0 0.0 0.00 0.06 0.00 92 1011.4
20260905062510 80 169 0.0 0.0 0.00 0.06 0.00 92 1011.3
20260905062408 80 169 0.0 0.0 0.00 0.06 0.00 92 1011.3
20260905062306 80 169 0.0 0.0 0.00 0.06 0.00 92 1011.4
20260905062205 80 169 0.0 0.0 0.00 0.06 0.00 92 1011.3
20260905062104 80 157 0.0 0.0 0.00 0.06 0.00 92 1011.4
20260905062003 80 164 0.0 0.0 0.00 0.06 0.00 92 1011.4
20260905061902 81 165 0.0 0.0 0.00 0.06 0.00 92 1011.4
20260905061803 81 165 0.0 0.0 0.00 0.06 0.00 92 1011.3
20260905061702 81 166 0.0 0.0 0.00 0.06 0.00 92 1011.3
20260905061604 81 166 0.0 0.0 0.00 0.06 0.00 91 1011.3
20260905061504 81 166 0.0 0.0 0.00 0.06 0.00 91 1011.3
20260905061402 81 168 0.0 0.0 0.00 0.06 0.00 91 1011.3
20260905061303 81 168 0.0 0.0 0.00 0.06 0.00 91 1011.3
20260905061202 81 168 0.0 0.0 0.00 0.06 0.00 91 1011.4
20260905061102 81 168 0.0 0.0 0.00 0.06 0.00 91 1011.3
20260905061004 81 168 0.0 0.0 0.00 0.06 0.00 91 1011.5
20260905060901 81 168 0.0 0.0 0.00 0.06 0.00 91 1011.4
20260905060803 81 168 0.0 0.0 0.00 0.06 0.00 91 1011.4
20260905060703 81 168 0.0 0.0 0.00 0.06 0.00 91 1011.4
20260905060602 81 168 0.0 0.0 0.00 0.06 0.00 91 1011.4
20260905060502 81 168 0.0 0.0 0.00 0.06 0.00 91 1011.4
20260905060403 81 168 0.0 0.0 0.00 0.06 0.00 91 1011.5
20260905060303 81 168 0.0 0.0 0.00 0.06 0.00 91 1011.3
20260905060202 81 168 0.0 0.0 0.00 0.06 0.00 91 1011.3
20260905060002 81 168 0.0 0.0 0.00 0.06 0.00 91 1011.4
20260905055903 81 169 0.0 0.0 0.00 0.06 0.00 90 1011.2
20260905055803 81 169 0.0 0.0 0.00 0.06 0.00 90 1011.3
20260905055702 81 169 0.0 0.0 0.00 0.06 0.00 90 1011.3
20260905055602 81 169 0.0 0.0 0.00 0.06 0.00 90 1011.3
20260905055502 81 169 0.0 1.7 0.00 0.06 0.00 90 1011.3
20260905055402 81 169 0.0 1.7 0.00 0.06 0.00 90 1011.3
20260905055306 81 169 0.0 1.7 0.00 0.06 0.00 90 1011.3
20260905055202 81 169 0.0 1.7 0.00 0.06 0.00 90 1011.3
20260905055103 81 169 0.0 1.7 0.00 0.06 0.00 90 1011.3
20260905055004 82 169 0.0 1.7 0.00 0.06 0.00 90 1011.3
20260905054903 82 169 0.0 1.7 0.00 0.06 0.00 90 1011.3
20260905054802 82 169 0.0 1.7 0.00 0.06 0.00 90 1011.3
20260905054704 82 169 0.0 1.7 0.00 0.06 0.00 90 1011.3
20260905054602 82 169 0.0 1.7 0.00 0.06 0.00 90 1011.3
20260905054502 82 169 0.0 1.7 0.00 0.06 0.00 90 1011.3
20260905054403 82 169 0.0 1.7 0.00 0.06 0.00 90 1011.3
20260905054301 82 169 0.0 1.7 0.00 0.06 0.00 90 1011.3
20260905054201 82 169 0.0 1.7 0.00 0.06 0.00 90 1011.3
20260905054104 82 169 0.0 2.6 0.00 0.06 0.00 90 1011.3
20260905054005 82 169 0.0 2.6 0.00 0.06 0.00 89 1011.3
20260905053903 82 169 0.0 2.6 0.00 0.06 0.00 90 1011.4
20260905053803 82 169 0.0 2.6 0.00 0.06 0.00 89 1011.3
20260905053703 82 169 0.0 2.6 0.00 0.06 0.00 89 1011.3
20260905053603 82 169 0.0 2.6 0.00 0.06 0.00 89 1011.3
20260905053504 82 169 0.0 2.6 0.00 0.06 0.00 89 1011.3
20260905053403 82 169 0.0 2.6 0.00 0.06 0.00 89 1011.3
20260905053302 82 169 0.9 3.5 0.00 0.06 0.00 89 1011.4
20260905053202 82 169 1.7 3.5 0.00 0.06 0.00 89 1011.3
20260905053103 82 172 0.9 3.5 0.00 0.06 0.00 89 1011.4
20260905053004 82 172 0.9 3.5 0.00 0.06 0.00 89 1011.4
20260905052902 82 175 1.7 3.5 0.00 0.06 0.00 89 1011.4
20260905052802 82 180 0.9 3.5 0.00 0.06 0.00 89 1011.4
20260905052704 82 182 1.7 3.5 0.00 0.06 0.00 89 1011.3
20260905052602 82 171 1.7 3.5 0.00 0.06 0.00 89 1011.4
20260905052502 82 195 1.7 3.5 0.00 0.06 0.00 89 1011.3
20260905052402 82 190 1.7 3.5 0.00 0.06 0.00 89 1011.4
20260905052306 82 178 2.6 3.5 0.00 0.06 0.00 89 1011.4
20260905052202 82 189 1.7 3.5 0.00 0.06 0.00 89 1011.4
20260905052102 82 179 1.7 3.5 0.00 0.06 0.00 89 1011.4
20260905052004 82 189 1.7 3.5 0.00 0.06 0.00 89 1011.5
20260905051902 82 183 1.7 3.5 0.00 0.06 0.00 89 1011.4
20260905051802 82 179 0.0 2.6 0.00 0.06 0.00 89 1011.4
20260905051702 82 188 0.0 4.3 0.00 0.06 0.00 89 1011.4
20260905051602 82 188 0.9 4.3 0.00 0.06 0.00 89 1011.4
20260905051502 82 195 1.7 4.3 0.00 0.06 0.00 89 1011.5
20260905051402 82 195 1.7 4.3 0.00 0.06 0.00 89 1011.5
20260905051303 82 195 0.9 4.3 0.00 0.06 0.00 89 1011.4
20260905051202 82 195 0.9 4.3 0.00 0.06 0.00 89 1011.4
20260905051102 82 195 0.9 4.3 0.00 0.06 0.00 89 1011.4
20260905051003 82 193 0.9 4.3 0.00 0.06 0.00 89 1011.3
20260905050903 82 195 1.7 4.3 0.00 0.06 0.00 89 1011.4
20260905050802 82 195 2.6 4.3 0.00 0.06 0.00 89 1011.4
20260905050702 82 193 2.6 4.3 0.00 0.06 0.00 89 1011.4
20260905050603 82 195 2.6 4.3 0.00 0.06 0.00 89 1011.3
20260905050502 82 204 2.6 3.5 0.00 0.06 0.00 89 1011.4
20260905050402 82 206 1.7 4.3 0.00 0.06 0.00 89 1011.3
20260905050303 82 199 0.9 4.3 0.00 0.06 0.00 88 1011.4
20260905050202 82 199 0.9 4.3 0.00 0.06 0.00 88 1011.3
20260905050003 82 185 0.9 4.3 0.00 0.06 0.00 88 1011.3
20260905045903 82 185 0.9 4.3 0.00 0.06 0.06 88 1011.3
20260905045802 82 182 0.9 4.3 0.00 0.06 0.06 88 1011.3
20260905045702 82 202 0.9 4.3 0.00 0.06 0.06 88 1011.3
20260905045604 82 202 1.7 4.3 0.00 0.06 0.06 88 1011.2
20260905045502 82 203 2.6 4.3 0.00 0.06 0.06 88 1011.2
20260905045403 82 180 2.6 4.3 0.00 0.06 0.06 88 1011.3
20260905045305 82 188 2.6 4.3 0.00 0.06 0.06 88 1011.3
20260905045202 82 193 2.6 4.3 0.00 0.06 0.06 88 1011.3
20260905045102 82 149 2.6 4.3 0.00 0.06 0.06 88 1011.2
20260905044959 82 200 1.7 4.3 0.00 0.06 0.06 88 1011.2
20260905044858 82 192 2.6 4.3 0.00 0.06 0.06 88 1011.2
20260905044756 82 182 1.7 4.3 0.00 0.06 0.06 88 1011.3
20260905044655 82 169 1.7 4.3 0.00 0.06 0.06 88 1011.1
20260905044554 82 188 1.7 4.3 0.00 0.06 0.06 88 1011.2
20260905044452 82 123 1.7 4.3 0.00 0.06 0.06 88 1011.3
20260905044350 82 180 1.7 5.2 0.00 0.06 0.06 88 1011.2
20260905044248 83 193 0.0 5.2 0.00 0.06 0.06 88 1011.2
20260905044147 83 216 1.7 5.2 0.00 0.06 0.06 88 1011.2
20260905044046 83 168 1.7 5.2 0.00 0.06 0.06 88 1011.3
20260905043943 83 179 1.7 5.2 0.00 0.06 0.06 88 1011.2
20260905043842 83 165 1.7 5.2 0.00 0.06 0.06 88 1011.3
20260905043737 82 168 1.7 5.2 0.00 0.06 0.06 88 1011.3
20260905043637 82 157 2.6 5.2 0.00 0.06 0.06 88 1011.2
20260905043535 82 116 1.7 5.2 0.00 0.06 0.06 88 1011.3
20260905043433 82 142 1.7 5.2 0.00 0.06 0.06 88 1011.3
20260905043330 82 141 1.7 5.2 0.00 0.06 0.06 88 1011.3
20260905043232 83 135 3.5 5.2 0.00 0.06 0.06 88 1011.3
20260905043132 83 176 2.6 5.2 0.00 0.06 0.06 88 1011.3
20260905043031 83 149 1.7 5.2 0.00 0.06 0.06 88 1011.4
20260905042931 83 161 1.7 5.2 0.00 0.06 0.06 88 1011.3
20260905042832 83 157 1.7 5.2 0.00 0.06 0.06 87 1011.4
20260905042731 83 165 1.7 5.2 0.00 0.06 0.06 87 1011.3
20260905042631 83 121 1.7 5.2 0.00 0.06 0.06 87 1011.4
20260905042531 83 180 2.6 5.2 0.00 0.06 0.06 87 1011.3
20260905042431 83 152 2.6 5.2 0.00 0.06 0.06 88 1011.2
20260905042331 83 193 1.7 4.3 0.00 0.06 0.06 87 1011.4
20260905042231 83 171 1.7 4.3 0.00 0.06 0.06 87 1011.3
20260905042132 83 178 1.7 4.3 0.00 0.06 0.06 87 1011.4
20260905042031 83 172 1.7 4.3 0.00 0.06 0.06 87 1011.4
20260905041931 83 196 1.7 4.3 0.00 0.06 0.06 87 1011.4
20260905041831 83 171 1.7 4.3 0.00 0.06 0.06 87 1011.4
20260905041732 83 149 1.7 4.3 0.00 0.06 0.06 87 1011.4
20260905041631 83 193 1.7 3.5 0.00 0.06 0.06 87 1011.5
20260905041531 83 147 1.7 3.5 0.00 0.06 0.06 87 1011.5
20260905041431 83 128 1.7 3.5 0.00 0.06 0.06 87 1011.5
20260905041331 82 128 0.9 3.5 0.00 0.06 0.06 87 1011.5
20260905041231 83 138 1.7 5.2 0.00 0.06 0.06 87 1011.5
20260905041132 83 137 1.7 5.2 0.00 0.06 0.06 87 1011.5
20260905041031 83 166 1.7 5.2 0.00 0.06 0.06 87 1011.5
20260905040932 83 157 1.7 5.2 0.00 0.06 0.06 87 1011.5
20260905040831 83 172 1.7 5.2 0.00 0.06 0.06 87 1011.5
20260905040732 83 142 1.7 5.2 0.00 0.06 0.06 87 1011.5
20260905040631 83 175 1.7 5.2 0.00 0.06 0.06 87 1011.5
20260905040531 83 121 1.7 5.2 0.00 0.06 0.06 87 1011.6
20260905040432 83 161 1.7 5.2 0.00 0.06 0.06 87 1011.5
20260905040332 83 149 1.7 5.2 0.00 0.06 0.06 87 1011.5
20260905040232 83 140 0.9 4.3 0.00 0.06 0.06 87 1011.5
20260905040131 83 131 0.9 4.3 0.00 0.06 0.06 87 1011.6
20260905040033 83 159 1.7 4.3 0.00 0.06 0.06 87 1011.5
20260905035933 83 147 0.9 4.3 0.00 0.06 0.06 87 1011.6
20260905035832 83 145 1.7 4.3 0.00 0.06 0.06 87 1011.6
20260905035733 83 188 1.7 4.3 0.00 0.06 0.06 87 1011.5
20260905035631 83 149 0.9 4.3 0.00 0.06 0.06 87 1011.6
20260905035531 83 164 1.7 4.3 0.00 0.06 0.06 87 1011.6
20260905035432 83 206 2.6 4.3 0.00 0.06 0.06 87 1011.6
20260905035332 83 171 1.7 3.5 0.00 0.06 0.06 87 1011.7
20260905035233 83 189 2.6 3.5 0.00 0.06 0.06 87 1011.6
20260905035133 83 157 1.7 3.5 0.00 0.06 0.06 87 1011.7
20260905035030 83 121 1.7 3.5 0.00 0.06 0.06 87 1011.7
20260905034931 83 159 1.7 3.5 0.00 0.06 0.06 87 1011.7
20260905034832 83 134 1.7 3.5 0.00 0.06 0.06 87 1011.7
20260905034732 83 141 1.7 3.5 0.00 0.06 0.06 87 1011.7
20260905034632 83 130 1.7 3.5 0.00 0.06 0.06 87 1011.7
20260905034532 83 145 1.7 3.5 0.00 0.06 0.06 87 1011.6
20260905034431 83 137 1.7 3.5 0.00 0.06 0.06 87 1011.6
20260905034333 83 140 1.7 3.5 0.00 0.06 0.06 87 1011.5
20260905034232 83 169 1.7 3.5 0.00 0.06 0.06 87 1011.6
20260905034131 83 166 0.9 3.5 0.00 0.06 0.06 87 1011.5
20260905034032 83 135 0.9 3.5 0.00 0.06 0.06 87 1011.5
20260905033931 83 134 0.9 3.5 0.00 0.06 0.06 87 1011.5
20260905033829 83 111 0.0 2.6 0.00 0.06 0.06 87 1011.6
20260905033728 83 111 0.0 2.6 0.00 0.06 0.06 87 1011.6
20260905033628 83 111 0.9 2.6 0.00 0.06 0.06 87 1011.6
20260905033523 83 111 1.7 2.6 0.00 0.06 0.06 87 1011.6
20260905033423 83 111 0.9 2.6 0.00 0.06 0.06 87 1011.6
20260905033322 83 111 0.9 2.6 0.00 0.06 0.06 87 1011.6
20260905033221 83 111 0.0 2.6 0.00 0.06 0.06 87 1011.6
20260905033115 83 111 0.9 2.6 0.00 0.06 0.06 87 1011.6
20260905033014 83 111 0.9 2.6 0.00 0.06 0.06 87 1011.6
20260905032913 83 111 0.9 2.6 0.00 0.06 0.06 87 1011.6
20260905032811 83 111 0.9 2.6 0.00 0.06 0.06 87 1011.6
20260905032709 83 111 1.7 2.6 0.00 0.06 0.06 87 1011.7
20260905032609 83 110 0.9 2.6 0.00 0.06 0.06 87 1011.7
20260905032507 83 94 0.0 2.6 0.00 0.06 0.06 87 1011.7
20260905032405 83 94 0.9 2.6 0.00 0.06 0.06 87 1011.7
20260905032306 83 94 0.9 2.6 0.00 0.06 0.06 87 1011.7
20260905032206 83 94 0.9 2.6 0.00 0.06 0.06 87 1011.8
20260905032104 83 92 0.9 2.6 0.00 0.06 0.06 87 1011.8
20260905032004 83 92 1.7 2.6 0.00 0.06 0.06 87 1011.8
20260905031904 83 89 0.9 1.7 0.00 0.06 0.06 87 1011.7
20260905031804 83 89 0.9 1.7 0.00 0.06 0.06 87 1011.7
20260905031704 83 89 0.9 1.7 0.00 0.06 0.06 87 1011.7
20260905031605 83 89 0.9 1.7 0.00 0.06 0.06 87 1011.8
20260905031506 82 89 0.9 1.7 0.00 0.06 0.06 87 1011.7
20260905031404 82 89 0.0 0.9 0.00 0.06 0.06 87 1011.6
20260905031304 82 87 0.0 0.9 0.00 0.06 0.06 87 1011.6
20260905031205 82 87 0.0 0.9 0.00 0.06 0.06 87 1011.6
20260905031104 82 87 0.0 0.9 0.00 0.06 0.06 87 1011.7
20260905031005 82 87 0.0 0.9 0.00 0.06 0.06 87 1011.7
20260905030904 82 87 0.0 0.9 0.00 0.06 0.06 87 1011.6
20260905030804 82 87 0.0 0.9 0.00 0.06 0.06 87 1011.7
20260905030704 82 87 0.0 0.9 0.00 0.06 0.06 87 1011.7
20260905030604 83 87 0.0 0.9 0.00 0.06 0.06 87 1011.7
20260905030504 83 87 0.0 1.7 0.00 0.06 0.06 87 1011.7
20260905030404 83 87 0.0 1.7 0.00 0.06 0.06 87 1011.7
20260905030304 83 87 0.0 1.7 0.00 0.06 0.06 86 1011.6
20260905030204 83 35 0.0 1.7 0.00 0.06 0.06 86 1011.7
20260905030104 83 35 0.0 1.7 0.00 0.06 0.06 86 1011.6
20260905030005 83 35 0.0 1.7 0.00 0.06 0.06 86 1011.5
20260905025904 83 35 0.0 1.7 0.00 0.06 0.06 86 1011.6
20260905025806 83 35 0.0 1.7 0.00 0.06 0.06 86 1011.6
20260905025704 83 35 0.0 1.7 0.01 0.06 0.06 86 1011.6
20260905025604 83 35 0.9 1.7 0.01 0.06 0.06 85 1011.6
20260905025504 83 35 0.0 1.7 0.01 0.06 0.06 86 1011.6
20260905025406 83 35 0.0 1.7 0.01 0.06 0.06 85 1011.5
20260905025306 83 35 0.0 1.7 0.01 0.06 0.06 86 1011.6
20260905025204 83 35 0.9 1.7 0.01 0.06 0.06 85 1011.6
20260905025105 83 35 0.9 1.7 0.01 0.06 0.06 85 1011.6
20260905025006 83 35 0.9 1.7 0.01 0.06 0.06 85 1011.6
20260905024904 83 35 0.0 1.7 0.01 0.06 0.06 85 1011.6
20260905024806 83 37 0.0 2.6 0.01 0.06 0.06 85 1011.6
20260905024704 84 38 0.0 2.6 0.01 0.06 0.06 84 1011.6
20260905024603 84 39 0.0 3.5 0.01 0.06 0.06 84 1011.5
20260905024506 84 41 0.0 3.5 0.01 0.06 0.06 83 1011.5
20260905024404 84 39 0.0 3.5 0.01 0.06 0.06 83 1011.4
20260905024304 84 39 0.0 3.5 0.01 0.06 0.06 83 1011.4
20260905024204 84 41 0.9 3.5 0.01 0.06 0.06 83 1011.4
20260905024104 84 41 0.9 3.5 0.01 0.06 0.06 83 1011.4
20260905024004 84 41 0.9 3.5 0.01 0.06 0.06 83 1011.4
20260905023903 84 41 1.7 3.5 0.01 0.06 0.06 83 1011.4
20260905023804 84 41 1.7 3.5 0.01 0.06 0.06 83 1011.4
20260905023704 84 39 2.6 3.5 0.01 0.06 0.06 83 1011.4
20260905023604 84 41 1.7 3.5 0.01 0.06 0.06 83 1011.3
20260905023505 84 41 1.7 3.5 0.01 0.06 0.06 83 1011.4
20260905023405 84 41 1.7 3.5 0.01 0.06 0.06 83 1011.4
20260905023304 84 41 1.7 3.5 0.01 0.06 0.06 83 1011.3
20260905023203 84 41 1.7 3.5 0.01 0.06 0.06 83 1011.3
20260905023103 84 42 1.7 3.5 0.01 0.06 0.06 83 1011.3
20260905023005 84 42 0.9 3.5 0.01 0.06 0.06 83 1011.3
20260905022904 84 42 0.0 3.5 0.01 0.06 0.06 82 1011.3
20260905022803 84 42 0.0 3.5 0.01 0.06 0.06 82 1011.3
20260905022705 84 42 0.0 3.5 0.01 0.06 0.06 82 1011.3
20260905022603 84 44 1.7 3.5 0.01 0.06 0.06 82 1011.3
20260905022504 84 42 1.7 3.5 0.01 0.06 0.06 82 1011.3
20260905022403 85 42 2.6 3.5 0.01 0.06 0.06 82 1011.3
20260905022306 85 44 2.6 3.5 0.01 0.06 0.06 82 1011.3
20260905022204 85 48 1.7 3.5 0.01 0.06 0.06 82 1011.2
20260905022103 85 39 2.6 3.5 0.01 0.06 0.06 81 1011.2
20260905022004 85 68 2.6 3.5 0.01 0.06 0.06 81 1011.2
20260905021904 85 51 2.6 4.3 0.01 0.06 0.06 81 1011.2
20260905021804 85 51 1.7 4.3 0.01 0.06 0.06 81 1011.2
20260905021703 85 52 1.7 4.3 0.01 0.06 0.06 81 1011.2
20260905021603 85 51 1.7 4.3 0.01 0.06 0.06 81 1011.2
20260905021504 85 52 1.7 4.3 0.01 0.06 0.06 81 1011.3
20260905021403 85 52 1.7 4.3 0.01 0.06 0.06 81 1011.2